[{"header": {"dx": 0.06612293990616946, "dy": 0.0552356325346848, "nx": 98, "ny": 59, "la1": 35.046912555036876, "la2": 31.78801023549047, "lo1": -121.43107172385933, "lo2": -114.95102361305473, "refTime": "2026041101", "parameterCategory": 1, "parameterNumber": 2}, "data": [4.08, 4.08, 4.08, 4.21, 3.93, 3.81, 3.81, 4.52, 4.52, 4.66, 5.15, 5.99, 6.92, 6.98, 6.31, 4.8, 2.94, 2.71, 3.39, 3.53, 5.0, 5.2, 5.14, 6.15, 6.84, 6.7, 6.7, 5.86, 5.2, 5.51, 5.6, 5.6, 4.75, 5.0, 4.78, 3.33, 5.06, 7.6, 4.22, 1.58, 1.56, 2.0, 2.82, 4.55, 6.4, 8.43, 9.67, 10.66, 10.18, 9.41, 8.18, 8.95, 9.8, 10.92, 11.25, 11.28, 11.03, 11.03, 11.09, 10.65, 10.65, 10.65, 10.63, 10.91, 10.91, 9.89, 9.36, 8.66, 9.7, 11.88, 14.0, 15.24, 14.95, 14.83, 14.58, 13.91, 13.29, 12.79, 13.75, 12.07, 11.62, 10.62, 9.68, 8.94, 6.01, 3.7, 3.15, 3.8, 4.0, 4.8, 4.9, 5.08, 6.3, 7.78, 8.54, 8.24, 5.64, 2.1, 4.08, 4.08, 4.08, 4.08, 3.93, 3.93, 3.93, 3.69, 4.66, 4.4, 4.71, 4.81, 6.24, 5.76, 5.2, 2.42, 1.69, 2.52, 2.42, 3.25, 4.9, 4.72, 5.2, 5.4, 5.14, 6.0, 5.86, 5.0, 4.3, 4.87, 4.93, 3.87, 4.0, 3.16, 2.47, 2.4, 2.83, 3.35, 1.84, 1.62, 1.84, 2.54, 4.1, 5.5, 8.33, 10.17, 11.8, 11.0, 9.92, 8.31, 8.59, 9.36, 10.22, 10.9, 11.18, 11.28, 11.39, 10.65, 10.25, 10.25, 10.25, 10.3, 10.66, 10.28, 9.89, 9.4, 9.4, 9.8, 10.51, 12.62, 14.64, 15.99, 15.93, 14.71, 14.17, 13.99, 13.29, 12.79, 13.75, 12.07, 11.62, 10.62, 9.68, 8.94, 6.01, 3.7, 3.15, 3.8, 4.0, 4.8, 4.9, 5.08, 6.3, 7.78, 8.54, 8.24, 5.64, 2.1, 4.38, 4.38, 4.08, 4.08, 3.22, 3.09, 3.09, 3.8, 3.92, 4.4, 4.39, 4.3, 5.78, 5.57, 3.67, 1.76, 0.93, 1.91, 1.84, 2.62, 3.39, 3.92, 5.0, 5.27, 6.51, 5.14, 4.44, 3.51, 3.39, 3.42, 3.23, 2.47, 2.41, 2.32, 1.63, 2.33, 3.11, 3.21, 2.39, 1.63, 1.77, 2.9, 6.19, 8.0, 10.56, 11.57, 12.46, 10.47, 8.58, 8.3, 9.06, 10.22, 10.98, 10.98, 10.19, 10.63, 10.3, 10.25, 10.25, 10.25, 9.92, 10.3, 10.37, 9.17, 8.66, 9.22, 10.34, 10.43, 10.58, 12.79, 14.81, 15.37, 16.25, 15.71, 13.64, 13.64, 13.49, 13.44, 13.75, 11.62, 10.7, 9.6, 7.51, 1.94, 2.76, 4.31, 4.5, 3.27, 4.2, 5.4, 6.2, 6.2, 7.11, 9.48, 9.17, 7.65, 6.15, 4.71, 4.38, 4.38, 4.52, 3.12, 3.22, 3.32, 3.18, 3.18, 2.98, 3.69, 3.73, 3.77, 5.78, 4.62, 2.0, 0.93, 0.97, 1.09, 1.91, 2.82, 2.82, 2.95, 4.58, 5.2, 5.4, 5.6, 3.51, 2.59, 2.71, 1.7, 1.71, 0.81, -0.0, 1.11, 1.13, 2.28, 3.47, 4.72, 4.17, 3.02, 3.62, 5.94, 7.95, 9.84, 10.25, 9.73, 8.21, 7.93, 7.93, 8.72, 9.17, 10.3, 10.63, 10.63, 10.63, 9.96, 10.3, 9.92, 9.8, 9.8, 9.92, 9.59, 8.85, 8.05, 7.36, 9.39, 11.29, 11.77, 11.44, 11.9, 14.18, 15.19, 14.81, 15.59, 14.71, 13.64, 13.07, 12.8, 15.3, 12.93, 9.81, 9.46, 1.84, 1.56, 3.16, 4.8, 4.8, 4.2, 4.54, 6.4, 7.54, 8.05, 8.44, 7.85, 7.06, 6.04, 6.31, 6.45, 4.38, 4.38, 4.52, 3.47, 3.22, 3.32, 2.31, 2.15, 3.18, 2.81, 3.04, 3.77, 3.97, 3.21, 0.97, -0.0, -0.0, -0.0, 1.0, 1.98, 3.04, 2.71, 2.95, 3.32, 3.21, 4.24, 2.93, 2.82, 1.28, 0.85, -0.0, -0.0, -0.89, -0.0, 1.28, 2.71, 4.08, 6.87, 8.05, 6.26, 6.08, 5.96, 7.28, 7.44, 8.1, 7.54, 7.64, 7.93, 8.72, 8.72, 9.59, 9.96, 9.96, 9.96, 9.96, 10.3, 9.92, 9.92, 9.8, 9.48, 10.03, 10.03, 8.67, 6.57, 6.94, 9.66, 11.62, 12.01, 11.82, 10.86, 11.95, 13.7, 13.14, 14.97, 15.41, 12.9, 12.39, 11.75, 12.99, 13.25, 9.72, 8.8, 5.06, 2.31, 3.29, 4.68, 5.63, 5.76, 6.9, 7.82, 8.05, 8.01, 8.53, 6.69, 5.76, 5.52, 6.45, 7.24, 4.74, 5.73, 4.52, 3.47, 3.47, 2.24, 2.31, 2.31, 2.31, 2.02, 2.22, 2.6, 2.94, 2.1, 1.11, -0.0, -0.0, -0.0, -0.0, 1.13, 2.45, 1.98, 1.43, 1.43, 1.55, 1.55, 1.55, 1.43, 1.38, 2.62, -0.0, -0.89, -1.02, -0.0, 1.48, 5.27, 6.87, 9.8, 11.35, 7.44, 4.62, 5.02, 5.99, 6.72, 7.82, 7.54, 7.78, 8.37, 8.85, 8.85, 9.34, 9.69, 9.69, 9.59, 9.92, 9.92, 9.59, 9.48, 9.48, 9.48, 9.3, 8.53, 7.44, 5.63, 5.91, 9.12, 11.19, 11.92, 12.01, 11.38, 11.14, 11.47, 13.17, 13.49, 14.61, 14.26, 12.89, 12.23, 10.87, 11.2, 9.49, 9.77, 6.59, 3.85, 4.01, 5.51, 6.45, 8.58, 9.62, 8.94, 8.24, 8.85, 8.49, 5.89, 5.64, 6.45, 7.24, 7.51, 5.73, 5.73, 4.74, 3.47, 3.58, 2.5, 2.5, 2.5, 2.5, 2.04, 1.58, 1.36, 1.69, 0.93, -0.0, -0.0, -0.0, -0.0, -0.0, 1.25, 1.29, -0.0, -0.0, 1.38, 1.83, 2.02, -0.0, 1.58, 2.91, 2.94, -0.0, -0.93, -1.09, -1.28, -0.0, 4.38, 7.58, 8.87, 8.38, 4.71, 3.93, 3.56, 6.0, 7.11, 9.02, 8.85, 9.3, 9.69, 9.36, 8.85, 9.42, 9.34, 10.03, 10.03, 9.64, 9.59, 10.03, 9.3, 9.17, 9.3, 9.02, 7.43, 4.97, 4.52, 6.24, 8.93, 10.71, 11.19, 12.01, 12.01, 12.16, 11.52, 12.52, 15.41, 14.62, 15.19, 14.39, 13.35, 11.83, 12.04, 10.43, 10.99, 7.14, 4.17, 4.87, 5.86, 8.58, 9.91, 9.92, 9.48, 8.93, 9.0, 7.02, 6.53, 6.57, 7.24, 7.51, 7.78, 5.55, 5.73, 4.89, 3.58, 3.69, 2.5, 2.5, 2.5, 2.43, 1.08, -0.0, -0.0, -0.0, -0.0, -0.0, -0.0, -0.0, -0.0, -0.0, -0.0, -0.0, -0.0, -0.0, -0.0, 1.73, -0.0, -0.0, 2.21, 5.81, 3.25, -0.0, -0.0, -0.0, -0.0, 1.58, 5.6, 7.19, 7.59, 7.59, 5.2, 4.1, 6.2, 8.93, 12.33, 12.22, 10.73, 9.77, 9.69, 9.69, 10.18, 9.08, 8.97, 9.3, 9.3, 9.3, 9.3, 8.97, 8.53, 8.69, 8.69, 7.9, 5.36, 3.81, 4.38, 6.4, 8.83, 10.47, 11.7, 12.09, 12.84, 13.51, 13.43, 13.11, 15.6, 15.01, 14.49, 15.27, 13.91, 13.29, 12.53, 11.27, 10.6, 6.24, 5.51, 6.33, 7.38, 8.87, 9.62, 9.48, 9.26, 9.21, 9.21, 9.0, 8.12, 7.24, 7.24, 7.78, 7.78, 6.2, 5.92, 4.89, 3.88, 3.69, 2.5, 2.5, 2.72, 2.56, 1.13, -0.0, -0.85, -1.83, -0.0, 1.38, -0.0, -0.0, -0.0, -0.0, -0.0, -0.0, -0.0, -0.0, -0.0, -0.0, -0.0, -0.0, 2.2, 2.21, -0.0, -0.0, -0.0, -0.0, -0.0, 3.82, 6.97, 7.59, 7.59, 6.42, 6.7, 6.94, 7.93, 10.12, 9.96, 9.82, 9.08, 10.18, 9.8, 9.02, 9.48, 9.8, 9.02, 8.53, 8.53, 9.02, 8.69, 8.69, 7.42, 7.9, 8.75, 5.86, 4.24, 3.81, 5.28, 7.26, 8.58, 11.06, 12.22, 12.87, 13.51, 14.07, 13.74, 14.42, 14.49, 14.0, 14.53, 14.65, 13.76, 13.74, 15.81, 11.69, 9.3, 6.33, 6.09, 6.97, 7.73, 8.01, 8.72, 8.57, 9.21, 9.21, 9.57, 8.87, 8.46, 8.01, 7.24, 8.49, 7.51, 6.4, 6.4, 5.04, 3.88, 4.0, 4.0, 2.72, 4.0, 2.81, 1.25, -0.0, -1.2, -1.33, -0.0, -0.0, 1.66, -0.0, -0.0, -0.0, -2.54, -2.45, -0.0, -0.0, -0.0, -0.0, -0.0, -0.0, -0.0, -0.0, -0.0, -0.0, -0.0, -0.0, 3.25, 5.4, 7.59, 5.7, 4.83, 8.22, 9.17, 9.76, 10.23, 9.67, 9.2, 9.2, 9.17, 9.02, 8.67, 9.02, 9.02, 9.17, 8.67, 8.53, 8.22, 8.41, 8.94, 8.22, 7.36, 8.22, 7.27, 4.81, 3.12, 5.04, 6.36, 7.69, 9.8, 11.42, 12.27, 13.1, 13.83, 14.3, 14.11, 14.35, 14.31, 14.03, 13.84, 12.96, 12.52, 12.51, 9.8, 8.65, 8.16, 7.19, 7.28, 7.36, 7.44, 7.85, 7.85, 8.57, 8.57, 9.21, 8.59, 8.22, 7.51, 7.51, 8.01, 9.32, 7.36, 6.4, 6.4, 5.48, 3.88, 3.88, 4.0, 4.0, 3.88, 3.98, 2.45, -0.0, -0.0, -0.0, -0.0, -0.0, 2.35, 2.65, -0.0, -2.98, -3.16, -3.42, -4.23, -0.0, -0.0, -2.89, -2.93, -2.49, -2.49, -0.0, -0.0, 4.24, 4.81, 4.32, 5.98, 7.26, 6.97, 6.71, 7.9, 8.82, 11.53, 11.9, 11.99, 10.8, 10.09, 9.32, 8.58, 7.36, 7.42, 7.72, 7.26, 7.78, 7.38, 7.38, 6.94, 6.24, 6.45, 6.76, 6.45, 7.44, 6.16, 4.38, 3.93, 5.81, 7.5, 9.06, 10.63, 12.07, 11.97, 12.2, 12.56, 13.23, 13.42, 13.83, 14.0, 14.23, 14.3, 12.96, 12.33, 6.6, 5.99, 6.66, 8.39, 8.16, 8.58, 7.85, 8.01, 7.8, 8.16, 8.22, 8.57, 8.93, 7.9, 7.93, 7.78, 8.01, 9.32, 8.42, 7.64, 6.4, 6.4, 5.31, 4.24, 3.88, 3.88, 4.0, 4.24, 3.98, 2.81, 1.43, -0.0, -0.0, -0.0, 1.9, 3.44, 3.44, 2.81, -0.0, -4.12, -7.2, -7.0, -3.07, -3.9, -6.0, -5.8, -6.94, -4.56, -3.25, -0.0, 5.46, 6.7, 6.7, 5.86, 8.03, 7.27, 7.81, 9.3, 10.24, 11.72, 12.39, 12.39, 11.62, 10.68, 8.03, 6.11, 5.77, 5.77, 5.4, 5.6, 5.43, 6.05, 5.79, 5.67, 5.45, 5.38, 7.21, 6.2, 3.98, 3.82, 3.93, 4.66, 6.78, 7.93, 9.62, 10.75, 11.91, 12.46, 11.57, 11.39, 12.39, 13.19, 12.56, 13.25, 13.41, 13.41, 8.38, 3.88, 5.06, 5.99, 6.6, 7.23, 7.93, 8.74, 9.16, 9.23, 8.38, 8.49, 8.53, 8.93, 8.59, 8.53, 8.01, 7.93, 8.12, 8.72, 7.64, 6.94, 6.4, 6.4, 5.31, 5.48, 4.24, 4.24, 4.24, 5.31, 5.31, 4.24, 1.48, -0.0, -0.0, 1.63, 1.89, 2.15, 3.81, 4.1, 4.65, -0.0, -3.25, -7.78, -9.17, -10.12, -10.79, -10.41, -9.77, -9.77, -6.71, -2.17, 2.39, 5.75, 7.9, 7.59, 8.55, 7.56, 7.47, 8.94, 9.48, 10.16, 11.62, 12.04, 10.55, 8.73, 6.14, 4.8, 4.08, 4.24, 4.24, 4.39, 4.17, 4.21, 3.25, 3.1, 4.73, 5.71, 8.05, 8.88, 6.4, 2.28, 3.46, 4.98, 6.36, 6.76, 7.26, 8.31, 9.12, 9.17, 7.98, 8.77, 11.37, 12.64, 10.24, 10.4, 11.28, 3.25, 1.42, 4.26, 6.35, 7.29, 7.38, 8.06, 8.85, 10.34, 9.92, 10.54, 10.43, 9.2, 8.87, 8.59, 8.6, 7.82, 7.73, 8.07, 8.53, 9.17, 7.1, 6.56, 6.95, 6.95, 6.4, 5.31, 4.24, 4.24, 4.24, 5.31, 5.31, 5.63, 3.01, 1.42, -0.0, 1.68, 3.79, 4.42, 3.79, 3.69, 5.81, 6.4, 4.52, -4.52, -10.43, -13.19, -13.59, -10.82, -9.8, -7.69, -6.67, -4.48, -0.0, 4.8, 8.22, 8.03, 7.27, 6.01, 6.11, 7.27, 8.99, 9.8, 10.6, 10.0, 8.73, 6.98, 4.4, 2.82, 2.97, 4.23, 4.4, 4.58, 4.58, 3.07, 1.58, 3.19, 4.58, 5.63, 8.78, 10.19, 10.19, 4.17, 2.54, 4.89, 6.1, 6.1, 6.52, 6.6, 6.51, 6.51, 6.37, 6.6, 9.67, 12.67, 12.01, 8.35, 7.27, 2.35, 3.12, 5.71, 7.57, 8.53, 9.25, 9.89, 10.43, 11.17, 10.43, 11.49, 11.9, 10.28, 9.19, 8.59, 7.9, 7.82, 7.82, 8.97, 8.6, 8.07, 6.7, 6.79, 6.95, 6.95, 6.95, 5.81, 4.11, 4.24, 4.24, 5.48, 5.31, 5.81, 3.1, 1.42, 1.47, 2.98, 3.49, 4.01, 3.9, 3.9, 5.49, 11.06, 8.43, -0.0, -0.0, -0.0, -0.0, -4.95, -7.0, -6.6, -4.52, -2.2, -0.0, 2.19, 6.2, 7.27, 6.17, 5.06, 6.42, 7.13, 9.7, 9.21, 9.32, 8.22, 5.75, 4.8, 4.2, 2.97, 3.11, 3.11, 4.4, 4.6, 4.8, 4.6, 5.29, 5.1, 6.01, 5.86, 7.27, 8.53, 11.06, 8.46, 3.32, 4.81, 6.2, 7.36, 7.06, 7.06, 6.8, 6.85, 6.94, 6.63, 7.89, 11.19, 14.42, 12.51, 10.94, 9.61, 7.6, 8.11, 10.02, 10.75, 11.26, 11.34, 12.08, 11.99, 11.47, 12.27, 11.88, 10.87, 9.56, 8.97, 7.78, 7.9, 8.22, 8.6, 8.22, 5.93, 6.43, 6.43, 7.93, 7.93, 6.95, 5.81, 5.81, 4.52, 4.52, 5.99, 5.99, 5.81, 4.52, 2.89, 1.47, 2.98, 5.09, 4.01, 3.9, 3.59, 7.4, 11.38, 8.68, 2.21, 2.21, 8.68, 16.09, -0.0, -2.57, -2.21, -2.43, -0.0, -0.0, 2.72, 6.21, 5.7, 4.4, 4.21, 5.46, 7.47, 8.73, 8.58, 5.7, 5.32, 4.8, 4.4, 4.2, 2.83, 2.83, 3.32, 4.6, 5.86, 6.14, 6.64, 7.68, 6.64, 6.32, 6.32, 7.33, 8.55, 10.01, 8.54, 6.0, 6.16, 6.97, 7.85, 7.56, 7.85, 7.48, 9.42, 8.85, 8.15, 7.26, 10.86, 16.06, 16.55, 14.39, 12.8, 10.47, 9.92, 11.33, 11.76, 12.42, 12.74, 11.79, 11.61, 11.36, 10.93, 11.62, 10.63, 9.69, 9.3, 8.97, 8.31, 7.9, 6.71, 6.09, 5.99, 6.67, 6.67, 8.58, 8.58, 7.58, 5.63, 5.81, 5.81, 4.52, 5.99, 5.99, 5.99, 5.99, 2.89, 1.47, 2.98, 4.95, 3.49, 3.39, 3.59, 7.4, 11.7, 5.09, -0.0, 1.6, 7.0, 10.75, -0.0, -2.57, -0.0, -0.0, -0.0, 2.21, 2.57, 5.48, 3.96, 2.99, 3.8, 4.0, 6.17, 6.17, 5.29, 3.98, 3.7, 5.06, 3.99, 4.6, 4.6, 4.6, 4.6, 6.32, 6.32, 7.67, 7.67, 7.81, 7.56, 6.95, 7.56, 8.18, 8.54, 8.73, 8.22, 7.56, 7.59, 8.24, 9.32, 9.32, 7.81, 8.18, 7.56, 8.22, 8.54, 9.8, 12.62, 17.39, 18.58, 15.9, 12.89, 11.88, 13.01, 14.67, 14.99, 14.53, 14.31, 13.99, 13.15, 12.37, 10.58, 10.45, 9.77, 9.3, 9.69, 8.65, 7.97, 7.08, 6.87, 6.56, 6.53, 7.54, 7.54, 8.58, 8.58, 8.58, 7.34, 5.63, 5.81, 4.52, 4.52, 5.99, 5.99, 5.99, 3.2, 3.2, 3.3, 4.81, 3.2, 1.51, 4.62, 6.72, 8.28, -0.0, -0.0, 1.38, 3.2, 2.43, -0.0, -0.0, -0.0, -0.0, 2.05, 2.05, 5.23, 5.23, 5.48, 3.25, 1.4, 1.67, 5.46, 7.27, 7.27, 5.63, 3.8, 4.83, 5.1, 5.36, 4.6, 5.59, 6.32, 7.67, 7.67, 8.0, 8.0, 8.0, 6.98, 6.64, 6.64, 7.56, 7.56, 7.9, 7.59, 8.49, 9.09, 9.32, 9.45, 9.63, 8.3, 7.63, 7.28, 8.18, 9.86, 13.99, 15.18, 18.54, 19.31, 16.85, 14.26, 13.51, 14.11, 15.01, 15.15, 14.42, 13.75, 13.94, 12.58, 10.0, 9.52, 9.42, 9.42, 9.76, 10.41, 9.34, 7.9, 6.2, 6.53, 7.12, 7.51, 8.09, 8.09, 8.58, 8.58, 8.31, 7.34, 6.2, 6.2, 6.4, 5.02, 5.99, 5.99, 5.99, 4.66, 3.2, 4.66, 3.58, 2.28, 1.58, 3.07, 4.95, 5.34, -0.0, -0.0, -0.0, -0.0, 1.83, 3.24, 2.72, 4.01, 2.47, 3.2, 3.79, 4.42, 5.23, 5.98, 2.81, 2.1, 4.0, 7.15, 9.2, 10.0, 8.8, 8.05, 8.4, 7.15, 7.51, 6.64, 7.33, 7.67, 7.67, 8.48, 8.91, 8.0, 7.33, 6.32, 6.64, 6.64, 7.56, 7.9, 8.15, 8.73, 9.32, 9.32, 10.46, 9.13, 9.42, 8.56, 7.35, 7.76, 8.91, 11.45, 13.37, 15.94, 19.24, 20.01, 17.64, 15.52, 14.16, 14.71, 15.24, 14.84, 13.99, 13.88, 13.44, 11.6, 9.81, 9.81, 9.81, 9.84, 10.04, 9.56, 8.93, 7.24, 6.45, 6.53, 8.18, 8.3, 8.72, 8.72, 9.31, 9.31, 8.31, 7.34, 7.34, 6.2, 6.4, 6.4, 6.6, 6.6, 6.6, 4.66, 4.66, 5.18, 5.18, 3.47, 1.83, 1.58, 2.21, 1.89, 2.34, 1.73, -0.0, -0.0, 2.28, 4.54, 4.54, 4.66, 5.34, 3.79, 3.9, 4.42, 4.42, 5.23, 3.16, 2.72, 6.97, 8.58, 8.91, 7.74, 8.24, 8.48, 8.73, 8.48, 8.17, 9.55, 8.72, 8.91, 8.91, 8.48, 8.48, 6.98, 5.59, 5.59, 5.53, 6.32, 7.9, 7.02, 8.12, 9.7, 9.86, 9.45, 9.86, 9.45, 8.17, 7.82, 7.44, 7.81, 9.03, 10.73, 12.72, 15.87, 19.18, 20.16, 18.78, 17.1, 15.98, 15.62, 14.55, 14.79, 14.61, 14.95, 14.03, 11.38, 10.4, 10.15, 9.34, 9.34, 9.84, 8.58, 8.12, 7.9, 7.12, 8.3, 8.37, 9.36, 9.92, 9.92, 9.8, 9.31, 9.02, 9.02, 7.34, 6.2, 6.4, 6.4, 6.6, 6.6, 6.6, 5.18, 5.18, 6.6, 5.99, 4.18, 2.15, -0.0, -0.0, 2.5, 5.37, 3.9, 2.28, 2.15, 2.5, 4.3, 5.99, 5.49, 5.65, 5.81, 5.81, 6.52, 4.54, 5.23, 3.24, 5.64, 8.05, 9.97, 9.6, 8.6, 8.67, 9.16, 9.6, 9.6, 8.79, 9.96, 8.72, 8.91, 8.91, 8.48, 7.67, 6.32, 5.59, 5.59, 5.86, 6.32, 7.06, 7.35, 8.73, 8.93, 9.45, 9.45, 9.45, 9.45, 7.58, 7.51, 7.4, 8.02, 9.4, 10.04, 11.26, 13.92, 18.21, 19.65, 17.88, 17.43, 16.26, 16.39, 15.65, 14.75, 14.18, 14.39, 13.78, 12.39, 12.1, 9.9, 8.95, 8.88, 7.94, 7.27, 7.36, 8.3, 8.59, 8.37, 9.48, 9.85, 9.9, 9.9, 9.8, 9.8, 9.02, 9.02, 8.05, 6.2, 6.2, 6.4, 6.6, 6.6, 7.32, 5.18, 5.18, 7.32, 7.32, 5.99, 4.18, 2.02, 2.28, 2.43, 2.65, 4.42, 4.3, 4.3, 5.23, 4.67, 4.54, 4.3, 6.16, 6.34, 6.52, 6.52, 4.54, 5.23, 3.24, 5.98, 8.85, 9.17, 10.0, 9.45, 8.37, 9.16, 8.91, 8.79, 7.95, 7.53, 9.13, 9.7, 9.26, 8.3, 6.01, 4.37, 4.6, 5.59, 5.86, 6.64, 6.64, 7.68, 8.37, 8.54, 7.96, 8.99, 8.4, 7.96, 7.51, 7.4, 7.4, 7.59, 7.78, 8.83, 9.8, 13.38, 16.39, 18.41, 11.71, 13.33, 16.99, 17.88, 16.99, 14.94, 13.81, 13.43, 13.77, 13.15, 12.93, 10.6, 8.38, 8.22, 8.16, 8.42, 7.73, 8.76, 9.48, 9.48, 9.9, 10.28, 10.37, 10.37, 9.8, 9.8, 9.8, 9.02, 8.05, 6.88, 6.88, 7.1, 7.32, 7.32, 7.54, 7.54, 7.32, 7.32, 8.18, 5.99, 5.99, 4.05, 4.52, 2.43, 2.28, 2.21, 4.05, 4.18, 5.09, 2.4, 2.47, 4.67, 4.54, 6.16, 6.16, 6.34, 6.34, 4.42, 5.09, 5.98, 9.39, 9.48, 10.4, 9.86, 9.21, 8.91, 8.91, 8.0, 7.2, 6.7, 9.13, 9.21, 7.89, 5.69, 4.37, 4.37, 5.31, 6.32, 6.32, 5.86, 6.11, 6.95, 8.24, 7.2, 7.58, 7.96, 7.28, 7.13, 6.95, 7.74, 7.27, 6.77, 6.86, 7.26, 8.54, 10.43, 19.15, 16.27, 10.73, 8.48, 11.99, 14.42, 16.24, 16.33, 14.93, 14.51, 13.65, 12.72, 11.58, 9.26, 8.42, 9.17, 9.48, 9.59, 8.85, 9.23, 9.9, 9.9, 10.28, 10.53, 10.87, 10.87, 9.8, 9.8, 10.52, 9.8, 8.05, 8.05, 6.88, 7.1, 7.32, 8.57, 8.83, 7.54, 7.54, 9.44, 8.43, 6.8, 5.99, 5.81, 4.05, 2.09, 2.21, 4.42, 4.18, 6.4, 4.66, 2.28, 2.4, 2.47, 4.79, 6.52, 6.34, 5.99, 5.49, 6.16, 4.95, 5.81, 8.05, 9.8, 10.04, 9.32, 9.63, 9.75, 8.8, 8.0, 7.53, 6.7, 9.64, 9.26, 7.28, 6.28, 6.01, 6.01, 6.01, 6.01, 6.01, 6.32, 5.44, 6.11, 8.24, 7.56, 5.69, 6.01, 7.13, 6.95, 6.95, 7.74, 6.77, 6.5, 5.7, 6.31, 7.74, 17.09, 20.75, 20.09, 16.96, 14.19, 11.55, 11.57, 14.3, 15.2, 16.09, 14.75, 14.28, 13.56, 10.58, 8.76, 9.06, 9.89, 9.89, 9.89, 9.69, 9.27, 10.28, 10.29, 10.66, 10.87, 10.87, 10.87, 10.52, 10.52, 10.52, 10.52, 9.48, 8.73, 6.88, 7.1, 7.1, 8.57, 8.83, 8.83, 8.83, 9.73, 8.43, 6.8, 5.81, 5.81, 5.81, 4.18, 2.21, 4.54, 7.4, 7.0, 5.48, 2.5, 2.34, 2.4, 4.67, 4.67, 6.52, 6.34, 5.49, 5.99, 5.99, 6.8, 7.82, 10.43, 10.41, 9.32, 9.2, 8.8, 8.4, 8.4, 7.95, 7.42, 7.56, 7.57, 7.94, 7.56, 7.03, 8.43, 6.44, 5.69, 5.1, 5.1, 6.32, 5.69, 7.68, 6.95, 6.95, 6.01, 6.79, 7.47, 7.51, 6.48, 5.7, 5.29, 6.31, 8.23, 10.5, 14.31, 19.67, 19.65, 18.39, 18.97, 19.22, 15.87, 13.53, 11.28, 14.1, 15.05, 14.75, 11.58, 9.97, 9.06, 9.89, 9.96, 10.3, 10.52, 11.64, 10.29, 10.66, 10.81, 10.63, 10.63, 10.63, 10.63, 11.09, 11.09, 10.18, 10.18, 9.48, 9.48, 8.87, 7.93, 8.18, 9.44, 9.44, 8.83, 9.73, 11.06, 10.02, 8.43, 5.81, 7.32, 7.32, 5.99, 4.3, 5.23, 8.74, 8.51, 5.98, 2.5, 2.21, 2.34, 2.79, 5.37, 5.37, 6.52, 5.81, 5.49, 5.99, 6.8, 9.49, 9.49, 11.53, 9.7, 9.2, 8.72, 8.34, 8.4, 8.48, 7.89, 8.05, 7.6, 8.05, 8.46, 8.29, 6.99, 8.0, 4.56, 5.1, 5.1, 6.79, 6.79, 6.32, 6.95, 7.68, 8.55, 6.91, 7.28, 6.79, 5.9, 5.29, 5.52, 7.27, 8.55, 9.96, 13.7, 15.71, 19.02, 19.71, 17.32, 18.02, 19.1, 13.39, 10.09, 13.28, 14.23, 10.39, 9.27, 9.1, 10.22, 10.24, 10.63, 10.63, 10.81, 12.03, 11.12, 10.8, 10.96, 10.96, 11.2, 10.96, 10.96, 10.73, 10.73, 10.18, 10.18, 10.18, 9.8, 8.87, 9.16, 8.18, 9.44, 9.44, 9.73, 9.73, 11.06, 11.06, 8.43, 5.81, 7.32, 7.32, 7.54, 6.16, 7.2, 8.51, 8.74, 5.23, 2.65, 2.57, 2.65, 2.72, 5.23, 5.23, 2.65, 5.09, 6.52, 6.52, 8.93, 8.68, 8.68, 11.68, 11.28, 9.46, 7.81, 7.87, 8.21, 8.3, 8.19, 8.46, 8.05, 8.05, 8.05, 7.94, 7.63, 5.59, 5.06, 5.06, 5.06, 6.79, 6.44, 5.03, 5.69, 8.43, 7.96, 9.2, 6.91, 7.27, 4.98, 5.7, 7.27, 8.47, 9.6, 10.7, 11.88, 14.18, 15.99, 17.86, 18.72, 17.62, 17.43, 11.7, 12.07, 8.85, 7.93, 8.43, 9.16, 9.56, 10.52, 11.6, 10.9, 10.91, 11.26, 11.6, 11.99, 11.41, 11.2, 10.96, 11.36, 11.09, 11.09, 10.73, 10.73, 10.73, 10.18, 10.18, 9.8, 9.8, 9.16, 9.44, 9.44, 9.44, 9.73, 10.75, 11.06, 11.06, 10.02, 8.18, 5.81, 7.54, 7.76, 8.68, 10.05, 10.33, 8.51, 5.23, 5.23, 2.65, 4.95, 5.81, 3.16, 2.65, 2.65, 5.09, 7.2, 7.2, 7.2, 8.93, 8.68, 12.02, 11.33, 9.84, 8.15, 7.51, 7.51, 7.81, 8.05, 8.79, 8.49, 7.94, 7.37, 8.05, 6.9, 5.37, 5.37, 5.59, 5.36, 6.8, 5.69, 4.75, 6.28, 6.7, 8.79, 9.21, 7.28, 6.11, 5.95, 7.27, 7.87, 9.4, 10.5, 11.21, 12.02, 12.92, 13.99, 16.02, 18.2, 18.98, 16.48, 13.7, 11.03, 8.73, 7.36, 8.02, 10.12, 10.3, 10.9, 11.18, 11.9, 11.88, 11.75, 11.62, 12.04, 12.45, 12.04, 11.92, 11.79, 11.87, 11.87, 10.73, 10.73, 10.73, 10.91, 10.91, 10.65, 9.8, 9.16, 9.44, 9.44, 9.44, 9.73, 10.75, 12.02, 12.02, 11.06, 8.43, 6.6, 8.43, 10.02, 10.02, 11.06, 11.38, 8.51, 5.23, 5.23, 5.09, 4.95, 5.81, 3.07, -0.0, -0.0, 2.65, 5.09, 7.2, 7.2, 8.93, 8.93, 11.06, 12.02, 9.8, 8.49, 7.64, 7.68, 7.56, 6.32, 8.18, 9.2, 6.64, 7.6, 6.08, 5.15, 4.95, 4.74, 5.49, 5.75, 5.95, 5.37, 5.06, 6.52, 7.2, 8.67, 8.79, 7.21, 6.4, 7.27, 8.58, 9.2, 9.16, 10.08, 11.44, 12.47, 12.52, 12.47, 14.27, 16.99, 18.5, 18.16, 15.77, 12.21, 9.55, 7.96, 8.41, 7.59, 10.3, 10.91, 11.69, 13.11, 13.39, 12.98, 12.37, 12.37, 12.44, 12.14, 12.37, 13.01, 12.58, 12.58, 11.37, 11.37, 11.37, 11.37, 10.91, 11.28, 10.65, 9.16, 9.44, 9.44, 9.44, 10.43, 11.68, 12.73, 13.58, 11.06, 8.68, 6.8, 8.43, 9.73, 12.02, 12.65, 11.06, 5.09, 5.09, 5.23, 5.09, 7.0, 8.05, 3.07, -0.0, -0.0, 2.21, 4.95, 4.95, 7.0, 8.93, 8.93, 10.02, 11.06, 10.43, 9.62, 8.37, 6.52, 5.49, 7.21, 9.08, 11.21, 9.58, 6.95, 5.0, 4.43, 5.06, 5.09, 5.09, 5.95, 6.13, 5.75, 6.4, 6.0, 7.06, 8.87, 7.95, 6.32, 7.13, 7.47, 8.23, 8.93, 8.63, 9.32, 10.66, 11.44, 13.25, 13.86, 15.07, 18.2, 18.78, 16.05, 17.22, 15.77, 13.89, 9.8, 7.15, 7.27, 8.0, 11.69, 12.4, 13.35, 14.0, 13.56, 13.56, 13.65, 13.25, 13.01, 13.05, 13.49, 13.65, 13.65, 11.37, 11.37, 11.37, 11.37, 10.91, 11.28, 10.65, 10.99, 9.44, 10.43, 10.43, 10.43, 12.37, 13.27, 13.58, 12.22, 8.05, 7.82, 9.49, 10.75, 12.65, 13.03, 9.49, 4.95, 5.09, 5.98, 5.98, 4.95, 5.64, 2.5, -0.0, 2.21, 2.15, 4.81, 4.81, 6.8, 7.0, 8.68, 10.02, 10.02, 10.75, 10.3, 8.59, 7.81, 6.9, 9.13, 12.33, 12.45, 10.41, 8.47, 5.72, 4.65, 4.07, 4.07, 4.37, 5.82, 6.4, 7.06, 7.45, 6.51, 7.6, 8.41, 8.22, 8.15, 8.15, 7.76, 8.15, 9.6, 9.2, 9.64, 9.29, 9.8, 12.93, 15.61, 17.43, 19.09, 19.22, 15.98, 14.7, 16.54, 15.61, 16.19, 11.58, 9.52, 9.42, 10.18, 10.5, 14.13, 13.78, 13.84, 13.84, 13.84, 13.84, 13.84, 13.69, 13.77, 13.33, 13.33, 11.37, 11.37, 11.37, 11.37, 11.37, 11.28, 10.65, 10.99, 10.43, 10.43, 10.43, 10.43, 11.33, 12.89, 13.99, 12.22, 8.05, 8.05, 9.77, 11.87, 13.59, 13.03, 8.05, 5.81, 5.81, 5.98, 5.98, 4.81, 3.24, 2.35, 2.15, 2.21, 4.18, 4.81, 4.66, 6.8, 6.8, 8.68, 10.02, 10.02, 11.06, 10.99, 10.09, 8.54, 9.46, 10.62, 12.0, 12.85, 11.62, 7.96, 5.69, 5.09, 4.73, 4.73, 4.55, 4.8, 6.16, 6.79, 7.45, 7.15, 7.15, 7.5, 8.22, 7.95, 8.67, 8.67, 8.41, 9.7, 10.32, 10.32, 8.79, 8.99, 12.56, 16.48, 20.78, 22.35, 17.43, 12.48, 13.65, 15.69, 15.27, 16.25, 15.56, 12.98, 12.66, 11.92, 11.57, 10.73, 13.86, 13.41, 13.41, 13.39, 13.41, 13.86, 13.39, 13.41, 13.41, 13.41, 11.37, 11.37, 11.99, 11.99, 11.99, 11.28, 11.28, 10.99, 11.33, 11.33, 11.33, 10.43, 11.33, 12.0, 13.99, 13.02, 9.77, 9.77, 11.06, 11.87, 13.99, 12.22, 8.05, 5.64, 5.81, 5.81, 3.07, 2.5, 2.35, 3.16, 3.93, 4.18, 4.95, 4.95, 4.81, 4.81, 6.8, 8.43, 10.02, 10.02, 11.06, 11.33, 10.19, 8.93, 9.45, 11.09, 11.55, 12.66, 10.88, 7.81, 7.07, 6.18, 5.84, 5.82, 5.82, 5.6, 5.44, 6.02, 6.61, 6.26, 5.36, 7.5, 8.77, 7.74, 8.17, 8.24, 8.43, 8.43, 10.18, 10.32, 9.42, 9.85, 11.0, 15.17, 21.37, 25.81, 15.08, 11.96, 13.25, 15.37, 15.22, 14.99, 16.15, 16.31, 14.22, 14.3, 12.96, 11.61, 13.76, 12.86, 12.86, 12.88, 13.33, 13.34, 13.78, 13.41, 12.5, 12.5, 11.6, 11.6, 11.99, 11.99, 11.99, 12.03, 11.28, 10.99, 10.99, 11.33, 11.33, 11.33, 11.33, 12.0, 13.59, 13.58, 12.02, 10.75, 10.75, 13.02, 13.02, 12.22, 8.05, 5.64, 5.64, 5.81, 3.07, 2.98, 2.5, 2.43, 4.66, 4.66, 4.66, 4.81, 4.81, 4.81, 6.8, 8.43, 8.68, 10.02, 10.02, 11.68, 10.91, 8.73, 9.63, 10.84, 11.53, 12.39, 11.45, 8.4, 6.98, 6.98, 6.01, 6.7, 6.6, 6.21, 6.28, 5.86, 5.59, 5.29, 7.6, 7.81, 7.6, 8.3, 7.2, 8.17, 7.81, 8.24, 9.7, 10.32, 9.55, 10.84, 11.62, 13.41, 19.2, 23.71, 19.02, 13.65, 14.23, 15.13, 15.13, 16.01, 16.44, 16.96, 17.41, 14.3, 13.39, 11.55, 12.87, 12.42, 11.98, 12.27, 12.33, 12.79, 12.88, 13.34, 12.88, 12.88, 11.6, 11.6, 11.99, 11.99, 11.99, 11.64, 11.28, 10.99, 10.99, 11.33, 11.33, 11.33, 11.33, 12.0, 13.59, 13.58, 11.68, 11.68, 11.68, 13.02, 13.02, 12.22, 8.05, 4.95, 5.64, 5.64, 3.07, 2.98, 2.98, 2.5, 4.66, 4.52, 4.52, 4.52, 4.66, 4.81, 6.8, 8.43, 8.43, 8.68, 10.02, 9.73, 10.52, 9.86, 9.63, 10.62, 11.62, 12.07, 11.71, 8.23, 6.95, 6.64, 6.01, 6.52, 6.7, 6.6, 7.12, 6.7, 6.51, 5.29, 4.92, 7.81, 7.2, 7.6, 8.3, 8.3, 7.81, 8.37, 9.16, 9.85, 9.97, 11.35, 12.44, 12.96, 16.07, 17.29, 18.56, 18.16, 15.45, 15.18, 15.2, 16.09, 16.06, 15.62, 15.62, 12.94, 12.96, 13.86, 12.52, 12.07, 11.62, 11.18, 11.62, 12.07, 12.52, 12.52, 12.44, 12.44, 11.6, 11.6, 11.99, 11.99, 11.99, 11.99, 11.28, 10.65, 10.99, 10.99, 11.33, 11.33, 12.0, 13.19, 13.81, 14.23, 13.2, 11.68, 12.65, 13.58, 13.99, 12.22, 7.0, 4.95, 4.95, 5.64, 2.98, 2.98, 2.89, 2.43, 2.43, 4.66, 4.52, 4.38, 4.52, 4.52, 6.6, 6.8, 8.43, 8.43, 8.43, 9.73, 10.12, 9.82, 8.93, 10.08, 10.18, 11.62, 10.04, 7.9, 5.46, 6.3, 6.64, 6.32, 6.7, 6.99, 7.2, 7.12, 6.7, 5.75, 5.36, 4.85, 7.81, 7.5, 8.17, 9.26, 8.24, 9.16, 9.33, 9.64, 11.09, 10.41, 13.19, 13.29, 14.27, 14.75, 16.12, 17.3, 19.77, 20.64, 18.65, 15.16, 13.38, 12.85, 13.18, 13.18, 12.86, 11.98, 11.52, 11.52, 11.52, 11.6, 12.04, 12.49, 12.5, 12.5, 12.52, 12.52, 12.14, 12.14, 12.56, 12.56, 11.99, 11.99, 11.28, 10.65, 10.99, 10.99, 10.99, 11.33, 12.81, 13.19, 13.81, 14.23, 13.2, 13.2, 13.2, 14.38, 13.99, 9.77, 7.0, 4.95, 5.64, 5.64, 2.98, 2.98, 2.43, 2.43, 2.43, 4.66, 4.52, 4.38, 4.38, 6.2, 6.4, 6.6, 6.6, 6.8, 8.43, 8.43, 8.87, 8.22, 6.87, 8.72, 9.75, 11.18, 6.97, 5.77, 6.24, 6.58, 6.3, 7.21, 7.07, 6.99, 6.99, 7.53, 6.94, 6.2, 5.29, 4.92, 8.05, 7.5, 8.41, 9.26, 8.43, 8.89, 9.33, 9.34, 9.64, 10.84, 12.94, 13.8, 15.05, 14.14, 14.03, 16.0, 20.63, 22.24, 19.18, 14.69, 11.8, 11.8, 12.27, 12.62, 12.79, 11.86, 12.42, 11.98, 11.98, 12.42, 12.5, 12.94, 12.96, 12.52, 12.96, 12.5, 12.3, 12.3, 12.14, 12.56, 11.99, 11.99, 11.28, 11.28, 10.99, 10.99, 11.9, 12.42, 12.42, 13.39, 13.81, 14.23, 14.23, 13.97, 13.97, 14.38, 13.42, 8.05, 7.0, 7.0, 8.05, 5.64, 2.98, 2.98, -0.0, 2.43, 2.35, 2.35, 4.52, 4.38, 6.2, 6.2, 6.2, 6.4, 6.6, 6.6, 6.6, 9.49, 8.38, 6.7, 6.01, 8.55, 10.96, 10.79, 7.73, 7.24, 7.56, 7.9, 7.59, 7.21, 7.07, 6.99, 7.81, 7.95, 7.37, 6.45, 5.29, 4.92, 8.05, 7.06, 7.97, 9.39, 8.82, 8.43, 8.89, 9.16, 8.99, 10.88, 12.04, 13.49, 17.35, 14.7, 14.3, 16.09, 19.91, 19.84, 16.88, 14.42, 13.01, 12.53, 12.53, 12.66, 13.25, 13.21, 12.87, 12.5, 12.5, 12.52, 12.52, 12.96, 12.96, 12.52, 12.94, 12.96, 12.3, 12.3, 12.14, 12.56, 11.99, 11.99, 11.64, 11.28, 10.99, 10.99, 11.9, 12.42, 13.39, 13.39, 13.81, 14.31, 14.75, 14.61, 13.97, 13.59, 12.22, 8.05, 4.95, 6.8, 6.8, 5.48, 2.43, 2.43, -0.0, 2.43, 2.35, 2.35, 4.52, 6.2, 7.13, 7.13, 6.2, 6.2, 6.4, 6.4, 6.6, 9.22, 6.9, 5.52, 6.95, 9.46, 11.64, 10.91, 9.17, 9.17, 8.85, 8.53, 8.59, 8.55, 7.07, 7.4, 7.81, 7.95, 7.37, 6.45, 5.73, 4.92, 5.36, 8.49, 8.49, 8.94, 7.98, 8.89, 8.73, 8.91, 8.99, 9.2, 11.87, 13.44, 14.86, 16.24, 15.65, 15.59, 16.95, 14.64, 13.84, 13.84, 13.35, 12.62, 12.77, 13.23, 14.15, 14.23, 13.39, 12.96, 12.96, 12.96, 12.96, 12.94, 12.94, 12.94, 12.44, 12.94, 12.66, 12.66, 12.14, 12.14, 12.56, 11.99, 11.64, 11.28, 10.65, 11.9, 12.42, 12.42, 13.39, 13.39, 14.4, 14.4, 14.75, 14.61, 13.97, 13.59, 9.49, 6.8, 4.3, 7.0, 6.8, 4.66, 2.09, 2.09, 2.09, 2.09, 2.35, 4.38, 4.38, 7.13, 7.13, 6.2, 4.38, 4.38, 6.2, 6.2, 7.36, 9.22, 8.31, 8.22, 8.58, 11.12, 12.13, 10.86, 10.52, 10.18, 10.91, 9.62, 9.67, 8.93, 8.0, 7.4, 7.81, 8.24, 7.81, 6.88, 6.2, 4.92, 7.6, 7.6, 7.89, 8.33, 8.43, 9.26, 7.95, 8.58, 8.6, 8.6, 10.88, 11.87, 13.43, 14.79, 18.36, 18.91, 14.75, 11.62, 13.6, 15.54, 15.04, 13.12, 12.44, 13.34, 14.29, 14.3, 13.41, 12.96, 12.94, 12.94, 12.87, 12.86, 12.86, 12.74, 12.3, 12.3, 12.66, 12.66, 12.14, 12.14, 12.14, 11.99, 11.64, 12.03, 12.03, 12.03, 12.03, 12.42, 13.39, 13.57, 13.96, 14.66, 14.64, 14.61, 13.56, 12.65, 8.43, 5.99, 5.99, 5.99, 5.99, 4.05, 4.05, 2.09, 2.09, 2.09, 2.35, 4.38, 7.13, 7.13, 6.0, 4.38, 4.38, 4.38, 6.2, 6.2, 7.36, 10.12, 9.8, 9.66, 10.4, 11.87, 12.42, 12.03, 11.26, 11.26, 10.79, 10.04, 9.3, 8.8, 7.6, 7.2, 8.17, 8.24, 7.81, 7.54, 6.64, 5.81, 4.92, 8.05, 7.89, 7.89, 8.3, 8.3, 7.37, 7.96, 8.34, 8.99, 10.75, 10.35, 12.85, 14.03, 16.79, 20.39, 16.79, 11.75, 13.74, 16.65, 16.74, 14.49, 12.88, 13.41, 13.86, 13.86, 13.39, 12.94, 12.87, 12.87, 12.77, 12.74, 12.58, 12.09, 12.09, 12.09, 12.66, 12.66, 12.58, 12.14, 12.14, 11.99, 11.64, 11.64, 12.03, 12.03, 12.03, 12.74, 13.39, 13.57, 13.96, 14.66, 14.31, 13.56, 13.56, 10.75, 7.54, 5.34, 5.99, 7.54, 5.81, 5.63, 4.05, 4.05, 2.09, 2.43, 4.52, 5.15, 7.13, 6.9, 4.24, 4.24, 3.81, 4.38, 6.2, 6.2, 8.94, 10.12, 9.8, 10.01, 10.35, 10.73, 11.99, 10.79, 10.04, 9.67, 9.3, 9.3, 9.2, 8.0, 7.6, 7.63, 7.74, 7.81, 7.98, 7.54, 7.08, 6.26, 5.36, 8.05, 7.81, 7.89, 8.3, 7.67, 6.91, 7.58, 8.79, 9.16, 9.6, 10.56, 11.33, 12.3, 14.3, 16.41, 17.82, 16.48, 14.79, 17.07, 17.88, 15.69, 13.84, 13.41, 13.41, 13.39, 13.39, 12.87, 12.33, 12.33, 12.62, 12.58, 12.09, 11.66, 11.66, 11.66, 12.22, 12.22, 12.58, 12.14, 12.14, 11.6, 11.64, 11.64, 11.64, 12.03, 12.74, 12.98, 13.57, 13.96, 14.23, 14.66, 14.18, 12.81, 12.81, 9.44, 6.8, 5.34, 7.54, 7.54, 8.43, 5.81, 5.81, 4.05, 4.05, 4.66, 4.52, 7.36, 7.13, 4.38, 4.24, 3.68, 3.68, 4.38, 6.2, 7.13, 8.94, 10.12, 9.8, 9.17, 9.42, 10.35, 10.73, 10.41, 9.67, 8.93, 8.18, 7.81, 7.6, 7.6, 7.6, 7.63, 7.31, 7.54, 7.54, 7.54, 7.08, 6.71, 5.81, 5.36, 8.24, 7.6, 8.3, 7.4, 7.76, 8.37, 9.7, 8.87, 9.33, 10.12, 10.84, 11.54, 12.87, 14.16, 15.41, 16.68, 18.76, 19.42, 18.94, 17.39, 13.56, 12.96, 12.94, 13.39, 12.87, 12.3, 13.23, 11.45, 12.3, 11.87, 11.45, 11.18, 11.18, 11.18, 12.22, 12.22, 12.14, 12.14, 12.14, 12.14, 12.33, 12.33, 12.33, 12.74, 12.74, 12.98, 13.57, 14.03, 14.23, 14.64, 13.56, 12.81, 12.81, 11.33, 7.32, 7.32, 8.43, 8.43, 8.18, 6.6, 5.81, 5.81, 4.66, 4.66, 6.4, 7.36, 6.2, 4.38, 4.24, 3.68, 3.68, 4.38, 6.2, 7.13, 8.66, 8.94, 9.8, 9.48, 9.77, 9.42, 9.77, 9.77, 10.04, 9.3, 8.55, 8.0, 7.2, 7.2, 7.63, 7.63, 7.74, 7.52, 7.1, 7.1, 6.64, 6.71, 5.81, 5.81, 5.73, 8.77, 8.33, 7.97, 8.43, 8.87, 8.87, 9.33, 9.64, 10.12, 10.84, 11.54, 12.21, 13.39, 12.79, 13.42, 15.16, 19.93, 21.8, 18.54, 16.47, 14.11, 12.96, 12.94, 12.85, 13.19, 11.56, 10.01, 10.55, 10.85, 11.03, 10.78, 10.78, 10.78, 12.22, 12.22, 12.14, 12.58, 12.14, 12.14, 11.92, 12.33, 12.33, 12.74, 12.74, 12.98, 13.53, 14.23, 14.22, 13.88, 13.15, 12.42, 10.99, 10.99, 8.18, 8.18, 8.18, 8.43, 8.43, 8.18, 6.4, 6.6, 6.6, 6.6, 6.6, 6.4, 6.4, 4.38, 4.24, 4.24, 4.24, 4.24, 6.2, 7.13, 8.66, 8.66, 8.66, 9.48, 10.12, 9.42, 9.77, 9.77, 10.41, 9.67, 8.93, 8.4, 8.0, 7.2, 7.63, 7.63, 7.52, 7.52, 7.1, 6.65, 6.2, 6.26, 5.81, 5.81, 5.36, 8.49, 8.49, 8.49, 8.94, 8.43, 8.89, 9.16, 9.64, 10.56, 10.84, 11.03, 12.04, 12.72, 12.15, 11.64, 12.65, 16.64, 21.19, 21.25, 19.08, 17.19, 15.17, 12.96, 12.96, 12.03, 11.58, 11.0, 10.7, 9.8, 10.18, 10.65, 10.65, 10.65, 12.22, 12.22, 12.14, 12.14, 12.58, 12.14, 11.92, 12.33, 12.33, 12.33, 13.44, 13.44, 13.53, 14.23, 14.3, 13.88, 13.15, 11.9, 11.9, 10.12, 8.18, 9.22, 9.49, 9.49, 9.49, 9.22, 6.4, 6.2, 7.36, 7.36, 7.59, 6.6, 6.4, 6.2, 4.24, 4.24, 4.24, 4.24, 6.0, 6.9, 8.38, 8.66, 8.66, 8.38, 10.12, 9.77, 10.12, 9.77, 9.77, 9.67, 9.6, 9.2, 8.4, 8.0, 7.63, 7.63, 7.52, 7.52, 7.08, 6.64, 6.2, 6.26, 6.26, 5.81, 5.36, 8.05, 7.89, 8.33, 8.77, 8.24, 9.16, 9.16, 10.08, 10.56, 10.35, 10.84, 11.11, 11.79, 11.6, 11.42, 12.03, 13.27, 17.01, 20.09, 22.15, 19.15, 16.76, 13.57, 10.99, 11.14, 10.92, 10.78, 10.73, 10.14, 9.96, 10.52, 10.52, 10.52, 12.22, 12.22, 12.22, 12.14, 12.14, 12.58, 11.92, 12.33, 12.89, 13.01, 13.44, 13.53, 13.77, 14.3, 14.22, 13.88, 13.15, 12.79, 11.9, 10.12, 10.12, 11.52, 11.52, 10.43, 9.22, 9.22, 8.94, 8.66, 8.66, 7.13, 7.13, 6.4, 6.4, 6.2, 6.0, 4.24, 4.24, 4.24, 6.0, 6.9, 8.38, 8.38, 8.66, 8.38, 9.17, 9.77, 10.12, 10.12, 9.42, 9.08, 9.6, 9.2, 8.8, 8.4, 7.63, 7.74, 7.97, 7.97, 7.52, 6.64, 6.64, 6.71, 6.26, 5.81, 5.36, 7.15, 7.21, 7.74, 7.81, 8.67, 9.16, 9.33, 9.64, 10.12, 10.56, 10.84, 11.03, 11.27, 11.02, 11.04, 11.42, 11.66, 12.89, 17.1, 20.83, 21.35, 11.1, 8.02, 8.94, 10.09, 10.0, 10.01, 9.66, 10.18, 9.75, 9.97, 9.97, 9.97, 12.44, 12.0, 12.44, 12.14, 12.14, 12.58, 12.46, 12.46, 13.01, 13.01, 13.44, 13.77, 14.22, 14.3, 13.77, 13.44, 12.74, 12.39, 11.53, 11.17, 11.17, 11.52, 11.52, 10.43, 10.43, 10.43, 8.94, 8.94, 8.66, 6.9, 6.9, 6.0, 6.2, 6.2, 6.0, 5.8, 4.81, 4.81, 6.67, 6.67, 8.38, 8.38, 8.38, 9.48, 10.12, 10.12, 10.12, 9.77, 9.42, 9.08, 9.6, 9.2, 8.8, 8.48, 8.17, 8.17, 7.97, 7.97, 7.52, 6.64, 6.64, 6.64, 6.26, 5.81, 5.36, 6.71, 7.01, 7.21, 7.4, 7.81, 8.67, 8.67, 9.33, 10.23, 10.56, 10.35, 10.32, 10.4, 10.43, 11.04, 10.79, 11.2, 12.03, 15.35, 20.94, 18.26, 12.03, 7.64, 8.93, 10.09, 10.53, 10.27, 9.74, 9.6, 9.75, 9.64, 9.64, 9.64, 12.0, 12.0, 12.0, 12.14, 12.14, 12.14, 12.58, 12.58, 13.01, 13.31, 13.75, 13.77, 14.3, 14.3, 13.77, 13.01, 12.89, 12.39, 12.79, 11.17, 12.27, 12.27, 11.52, 10.43, 10.43, 9.22, 8.94, 8.94, 8.66, 6.2, 6.0, 6.0, 6.0, 7.44, 7.19, 6.67, 6.67, 6.67, 6.67, 6.67, 8.1, 8.1, 8.38, 8.38, 10.12, 10.12, 9.77, 9.77, 9.42, 9.08, 9.6, 8.8, 8.8, 8.91, 8.48, 7.63, 7.63, 7.52, 7.52, 7.08, 6.64, 6.64, 6.61, 6.26, 5.81, 4.92, 6.71, 7.01, 6.8, 7.4, 7.37, 8.0, 8.79, 8.79, 10.08, 9.96, 9.42, 9.43, 9.81, 10.43, 10.81, 10.8, 11.36, 14.64, 22.39, 19.67, 14.33, 9.81, 9.34, 9.86, 10.27, 10.0, 9.27, 9.27, 8.18, 7.81, 7.81, 7.81, 12.0, 12.0, 12.0, 11.98, 12.14, 12.14, 12.14, 12.86, 12.86, 13.31, 13.86, 13.86, 14.3, 13.86, 13.33, 13.01, 13.32, 12.39, 12.79, 12.27, 12.27, 12.27, 11.52, 10.43, 10.43, 8.94, 7.93, 7.69, 7.69, 7.69, 7.44, 7.44, 7.44, 7.44, 7.19, 8.1, 6.67, 6.44, 6.44, 6.67, 8.1, 8.1, 8.1, 9.17, 9.17, 10.12, 9.77, 9.77, 9.42, 9.08, 9.6, 9.2, 9.2, 8.91, 8.48, 8.38, 7.94, 7.5, 7.06, 7.06, 6.61, 6.64, 6.61, 6.71, 5.81, 4.92, 7.15, 6.51, 7.06, 7.2, 7.6, 7.76, 8.0, 7.58, 8.8, 8.6, 9.2, 9.16, 9.81, 9.81, 10.4, 10.4, 11.27, 20.77, 22.83, 20.16, 15.87, 12.62, 11.03, 9.2, 9.45, 9.56, 9.67, 9.3, 9.27, 7.82, 7.82, 7.82, 12.0, 12.0, 12.0, 11.98, 12.42, 12.42, 12.42, 12.86, 12.86, 13.41, 13.86, 13.86, 13.86, 13.86, 13.33, 13.01, 13.44, 12.74, 12.39, 12.79, 12.79, 11.17, 10.43, 9.44, 9.44, 9.16, 9.16, 8.05, 6.88, 7.44, 7.44, 7.44, 7.44, 7.44, 7.19, 7.82, 7.82, 6.44, 6.44, 6.44, 8.1, 9.17, 9.17, 9.17, 9.17, 10.12, 9.77, 9.77, 9.42, 9.08, 9.6, 9.2, 9.13, 8.72, 8.3, 8.33, 8.33, 7.89, 7.5, 7.06, 6.61, 6.61, 6.61, 6.71, 6.26, 5.36, 4.92, 4.66, 7.37, 7.89, 8.38, 8.17, 8.37, 7.96, 7.96, 7.87, 8.55, 9.2, 9.42, 9.77, 9.81, 10.4, 14.64, 19.56, 22.45, 19.3, 15.52, 12.66, 10.73, 9.81, 8.58, 9.78, 9.9, 10.23, 9.84, 8.63, 8.63, 8.63, 12.07, 12.07, 12.0, 11.98, 11.98, 12.42, 12.42, 12.86, 12.96, 13.41, 13.41, 13.41, 13.41, 13.41, 12.86, 13.01, 13.44, 13.32, 13.32, 12.79, 11.9, 10.99, 9.16, 10.12, 9.31, 9.31, 9.02, 8.05, 8.05, 7.79, 7.19, 7.44, 7.44, 7.44, 7.19, 7.82, 7.82, 7.82, 7.54, 7.82, 8.85, 8.85, 9.17, 9.17, 9.17, 9.77, 9.77, 9.77, 9.77, 9.08, 9.2, 9.2, 9.13, 8.72, 8.3, 7.89, 8.33, 7.89, 7.45, 7.45, 7.06, 7.15, 6.71, 6.71, 6.71, 6.26, 5.81, 5.09, 7.15, 7.6, 8.05, 8.41, 8.67, 8.79, 8.4, 8.4, 8.6, 8.99, 9.2, 9.42, 9.81, 10.4, 13.64, 17.9, 20.09, 18.42, 14.39, 10.19, 8.82, 8.68, 9.52, 10.09, 10.63, 10.23, 10.23, 9.2, 9.2, 9.2, 11.62, 11.62, 12.07, 11.98, 11.98, 11.98, 12.42, 12.96, 12.52, 12.96, 12.96, 12.96, 12.96, 12.96, 12.96, 13.31, 13.75, 13.44, 13.32, 12.03, 11.64, 10.12, 10.12, 10.12, 10.12, 9.31, 9.02, 9.02, 8.73, 7.79, 8.3, 8.59, 7.44, 7.44, 8.1, 7.82, 7.82, 7.82, 7.54, 7.54, 8.85, 8.85, 8.85, 8.85, 8.85, 9.77, 9.77, 9.77, 9.77, 9.97, 9.2, 9.2, 9.13, 8.72, 8.3, 7.89, 8.33, 7.89, 7.45, 7.45, 7.6, 7.15, 6.71, 7.15, 7.15, 6.26, 5.81, 5.81, 5.81, 7.6, 8.05, 8.41, 8.85, 8.37, 8.79, 8.79, 8.79, 8.99, 9.2, 9.77, 9.42, 10.63, 12.56, 16.19, 19.39, 17.85, 14.79, 10.23, 7.68, 9.27, 9.84, 10.0, 10.53, 10.23, 10.23, 10.23, 10.23, 10.23, 11.62, 11.62, 11.62, 12.07, 11.53, 11.98, 12.07, 12.52, 12.52, 12.52, 12.96, 12.96, 12.96, 12.96, 12.96, 13.41, 13.86, 13.75, 12.98, 12.03, 11.28, 10.86, 10.86, 10.12, 10.12, 9.8, 9.02, 8.73, 8.73, 8.73, 8.3, 8.59, 8.59, 8.3, 9.17, 8.85, 8.85, 7.54, 7.54, 8.53, 8.85, 8.85, 8.85, 8.85, 9.77, 9.77, 9.77, 9.77, 10.73, 9.97, 9.6, 9.2, 9.33, 8.91, 8.72, 8.3, 8.33, 8.33, 7.89, 7.45, 7.6, 7.15, 7.15, 7.15, 7.15, 6.71, 6.26, 5.81, 5.2, 7.6, 8.05, 8.05, 8.41, 7.81, 7.76, 8.0, 8.37, 9.33, 8.99, 9.2, 9.81, 10.96, 12.04, 14.92, 18.88, 18.06, 15.19, 11.57, 8.67, 8.88, 9.74, 10.0, 10.4, 10.63, 10.23, 10.23, 10.23, 10.23, 11.62, 11.62, 11.62, 11.62, 11.62, 12.07, 12.07, 12.07, 12.07, 12.52, 12.45, 12.9, 12.88, 12.96, 12.96, 13.41, 13.41, 13.75, 12.98, 12.39, 11.75, 11.44, 11.44, 10.12, 9.8, 9.8, 9.8, 8.73, 8.73, 8.44, 9.17, 8.59, 8.59, 8.3, 8.85, 8.85, 8.53, 8.53, 8.53, 9.42, 9.77, 9.77, 9.77, 9.42, 9.42, 9.42, 10.73, 10.73, 10.73, 10.4, 9.6, 9.2, 9.33, 9.33, 8.91, 8.3, 8.33, 7.89, 7.89, 7.45, 7.15, 7.15, 7.15, 7.6, 7.6, 7.15, 5.6, 4.43, 4.43, 7.63, 8.05, 8.05, 7.63, 7.6, 7.81, 7.76, 7.76, 8.0, 8.4, 9.2, 10.17, 10.85, 12.09, 13.96, 17.44, 17.47, 15.99, 12.94, 10.81, 9.45, 9.74, 10.0, 10.4, 10.63, 10.23, 10.23, 10.23, 10.23, 11.18, 11.18, 11.18, 11.62, 11.62, 11.62, 11.62, 12.07, 12.07, 12.45, 12.45, 12.9, 12.9, 12.96, 12.96, 13.41, 13.86, 13.09, 12.98, 12.39, 11.75, 11.44, 11.44, 10.77, 9.8, 9.8, 9.48, 9.48, 8.73, 8.44, 9.17, 9.48, 8.59, 9.17, 8.85, 8.85, 8.53, 8.53, 9.42, 9.42, 9.42, 9.42, 9.42, 9.42, 9.42, 10.35, 10.35, 10.35, 10.8, 10.0, 9.6, 9.75, 9.75, 9.33, 8.91, 8.91, 8.77, 7.89, 7.89, 7.45, 7.6, 7.6, 7.6, 7.6, 7.6, 7.15, 6.36, 4.74, 5.06, 5.95, 7.01, 8.49, 7.94, 7.63, 8.06, 8.22, 8.22, 8.79, 9.33, 9.55, 10.08, 11.11, 12.09, 13.49, 16.22, 16.76, 16.53, 13.58, 12.6, 9.45, 9.74, 10.0, 10.4, 10.63, 10.8, 10.8, 10.8, 10.8, 11.18, 11.18, 11.18, 11.18, 11.18, 11.62, 11.62, 12.07, 12.07, 12.45, 12.45, 12.45, 12.9, 12.9, 12.96, 13.41, 13.34, 13.09, 12.72, 12.66, 12.11, 11.09, 11.44, 10.77, 10.43, 9.48, 9.48, 9.48, 9.17, 9.17, 9.17, 9.48, 9.48, 9.96, 8.85, 8.85, 8.53, 9.42, 9.42, 9.42, 9.42, 9.42, 9.42, 9.42, 9.08, 9.97, 9.97, 10.8, 10.4, 9.6, 9.6, 9.75, 9.75, 9.75, 9.33, 9.26, 8.82, 8.33, 8.33, 7.89, 7.6, 7.6, 7.6, 8.05, 8.05, 7.6, 6.79, 5.06, 5.06, 6.32, 7.37, 8.94, 7.89, 8.67, 7.63, 8.17, 8.6, 8.79, 8.91, 9.33, 10.35, 10.89, 11.84, 13.05, 15.13, 15.52, 15.37, 13.58, 12.42, 11.6, 10.0, 10.0, 10.4, 10.94, 11.34, 10.94, 10.94, 10.94, 11.18, 11.18, 11.18, 11.18, 11.18, 11.62, 11.62, 12.07, 12.07, 12.45, 12.45, 12.45, 12.9, 12.9, 12.96, 13.41, 13.34, 13.15, 12.85, 12.66, 12.11, 11.53, 11.09, 10.43, 10.43, 10.09, 9.48, 9.48, 9.84, 9.84, 9.17, 10.3, 9.96, 9.62, 9.62, 9.62, 9.42, 10.04, 9.67, 9.67, 10.04, 10.04, 9.67, 9.67, 10.0, 10.0, 10.0, 10.0, 10.0, 9.6, 9.75, 9.75, 9.75, 9.75, 9.33, 9.7, 9.26, 8.82, 8.38, 8.05, 8.05, 8.05, 8.05, 8.05, 8.05, 7.6, 6.94, 7.21, 5.37, 5.37, 5.37, 6.79, 6.71, 8.94, 7.89, 8.38, 8.85, 9.11, 9.16, 9.6, 10.08, 10.84, 11.36, 12.58, 13.99, 14.3, 14.22, 13.03, 12.42, 11.42, 10.63, 10.23, 10.0, 10.4, 10.94, 11.09, 11.09, 11.09, 11.18, 11.18, 11.18, 11.18, 11.18, 11.62, 11.62, 12.07, 12.07, 12.45, 12.45, 12.45, 12.9, 12.9, 12.96, 13.41, 13.34, 13.15, 12.85, 12.66, 12.11, 11.53, 11.09, 10.43, 10.43, 10.09, 9.48, 9.48, 9.84, 9.84, 9.17, 10.3, 9.96, 9.62, 9.62, 9.62, 9.42, 10.04, 9.67, 9.67, 10.04, 10.04, 9.67, 9.67, 10.0, 10.0, 10.0, 10.0, 10.0, 9.6, 9.75, 9.75, 9.75, 9.75, 9.33, 9.7, 9.26, 8.82, 8.38, 8.05, 8.05, 8.05, 8.05, 8.05, 8.05, 7.6, 6.94, 7.21, 5.37, 5.37, 5.37, 6.79, 6.71, 8.94, 7.89, 8.38, 8.67, 9.11, 9.16, 9.6, 10.08, 10.58, 11.33, 12.09, 12.98, 13.35, 13.25, 12.65, 11.9, 11.66, 11.28, 10.87, 10.23, 10.55, 10.96, 10.43, 10.43, 10.43]}, {"header": {"dx": 0.06612293990616946, "dy": 0.0552356325346848, "nx": 98, "ny": 59, "la1": 35.046912555036876, "la2": 31.78801023549047, "lo1": -121.43107172385933, "lo2": -114.95102361305473, "refTime": "2026041101", "parameterCategory": 1, "parameterNumber": 3}, "data": [13.25, 13.25, 13.25, 13.67, 13.75, 13.32, 13.32, 13.57, 13.57, 13.99, 12.87, 10.48, 9.89, 8.73, 8.12, 9.6, 10.78, 9.92, 10.18, 10.6, 10.0, 10.4, 9.42, 8.79, 9.4, 10.04, 10.04, 10.04, 10.4, 10.23, 11.2, 11.2, 11.09, 10.0, 8.6, 5.82, 5.06, 0.0, 6.32, 7.89, 10.16, 11.0, 11.28, 12.14, 12.79, 12.65, 14.51, 15.99, 14.7, 13.6, 10.63, 10.58, 9.8, 9.24, 8.84, 8.05, 7.63, 7.63, 8.31, 8.87, 8.87, 8.87, 8.18, 7.79, 7.79, 9.06, 10.22, 10.24, 10.51, 10.18, 9.62, 8.47, 7.08, 6.24, 5.67, 4.91, 3.91, 2.13, 1.72, 0.0, 0.0, -1.52, -1.76, 0.0, 6.01, 8.14, 7.89, 7.6, 8.0, 9.6, 11.03, 11.44, 11.33, 10.37, 9.76, 9.42, 10.16, 10.52, 13.25, 13.25, 13.25, 13.25, 13.75, 13.75, 13.75, 13.82, 13.99, 14.08, 12.56, 12.52, 9.81, 9.05, 10.4, 10.91, 10.14, 11.35, 10.91, 9.75, 11.03, 10.62, 10.4, 10.8, 9.42, 9.43, 10.04, 10.0, 10.32, 10.55, 11.5, 12.37, 12.8, 10.25, 9.06, 7.21, 7.53, 7.81, 8.29, 9.7, 11.93, 12.71, 12.3, 13.2, 14.29, 15.25, 15.74, 14.66, 13.23, 11.09, 10.3, 10.22, 9.36, 8.56, 8.2, 8.05, 7.89, 8.87, 9.32, 9.32, 9.32, 8.59, 7.38, 7.9, 9.06, 10.18, 10.18, 9.8, 9.7, 9.25, 8.61, 8.0, 7.08, 6.54, 5.51, 4.66, 3.91, 2.13, 1.72, 0.0, 0.0, -1.52, -1.76, 0.0, 6.01, 8.14, 7.89, 7.6, 8.0, 9.6, 11.03, 11.44, 11.33, 10.37, 9.76, 9.42, 10.16, 10.52, 13.15, 13.15, 13.25, 13.25, 13.94, 14.42, 14.42, 14.25, 14.69, 14.08, 11.72, 9.83, 10.6, 10.2, 10.08, 10.58, 11.14, 11.46, 11.02, 11.78, 10.18, 10.46, 10.0, 11.85, 11.72, 9.42, 9.77, 9.66, 10.18, 11.11, 12.09, 13.18, 13.65, 12.75, 10.6, 10.47, 9.33, 8.82, 9.54, 10.6, 12.39, 13.55, 14.86, 15.99, 16.59, 15.91, 15.22, 12.8, 11.44, 9.96, 9.89, 9.36, 8.45, 8.45, 8.01, 8.18, 8.59, 9.32, 9.32, 9.32, 9.02, 8.59, 7.78, 9.17, 10.24, 11.52, 11.14, 10.43, 8.95, 8.22, 8.33, 7.23, 6.32, 6.47, 5.62, 5.62, 4.76, 3.36, 1.72, 0.0, -0.82, -2.13, 5.63, 8.73, 8.97, 9.34, 8.24, 7.35, 8.4, 10.8, 12.39, 12.39, 11.37, 9.48, 9.17, 8.75, 8.79, 8.63, 13.15, 13.15, 13.57, 13.5, 13.94, 14.37, 14.86, 14.86, 14.9, 13.82, 11.95, 10.05, 10.6, 10.17, 11.0, 11.14, 11.58, 12.02, 11.46, 11.28, 10.35, 10.32, 10.68, 10.4, 10.8, 11.2, 9.66, 9.49, 9.92, 11.05, 11.95, 12.94, 12.96, 13.36, 12.47, 11.4, 11.56, 10.62, 10.85, 13.07, 15.68, 17.81, 17.5, 15.46, 14.1, 13.38, 10.03, 9.69, 9.69, 9.59, 9.17, 8.59, 8.18, 8.18, 8.18, 8.3, 8.59, 9.02, 9.8, 9.8, 9.02, 8.72, 8.85, 10.73, 12.27, 12.52, 12.09, 10.3, 8.58, 7.93, 8.51, 7.6, 8.33, 7.8, 6.54, 5.62, 4.61, 4.0, 3.28, 0.99, -0.75, 2.7, 9.21, 10.16, 10.25, 9.6, 9.6, 8.4, 10.21, 12.79, 13.2, 11.28, 9.84, 9.16, 8.07, 7.76, 8.68, 9.67, 13.15, 13.15, 13.57, 13.88, 13.94, 14.37, 15.02, 15.05, 14.86, 14.03, 12.14, 10.05, 10.92, 10.7, 10.68, 11.62, 11.62, 12.07, 12.03, 11.91, 12.14, 10.84, 10.32, 11.61, 10.7, 11.3, 11.71, 11.28, 11.55, 10.25, 10.73, 11.18, 11.59, 11.62, 11.55, 10.84, 10.88, 10.99, 13.42, 17.22, 18.24, 16.38, 13.34, 11.69, 10.12, 9.42, 9.34, 9.69, 9.59, 9.59, 8.72, 8.3, 8.3, 8.3, 8.3, 8.59, 9.02, 9.02, 9.8, 9.48, 8.21, 8.21, 9.64, 12.2, 13.02, 12.87, 12.39, 12.01, 10.25, 9.31, 9.39, 10.05, 10.05, 10.57, 9.07, 7.16, 6.2, 5.48, 6.99, 4.08, 1.5, 4.4, 8.43, 10.02, 10.68, 10.15, 9.65, 9.05, 11.5, 12.51, 11.28, 9.62, 8.53, 7.81, 7.41, 8.67, 9.67, 9.66, 13.02, 12.62, 13.57, 13.88, 13.88, 14.58, 15.02, 15.02, 15.02, 14.16, 11.86, 10.41, 10.78, 10.52, 11.12, 11.18, 11.62, 12.07, 12.07, 12.47, 12.27, 11.91, 12.88, 12.88, 12.42, 12.42, 12.42, 12.88, 12.44, 11.78, 9.83, 9.79, 10.23, 12.07, 13.33, 11.85, 10.99, 9.8, 13.24, 16.75, 15.41, 13.39, 10.99, 10.56, 9.77, 9.42, 8.64, 9.3, 8.85, 8.85, 7.64, 7.93, 7.93, 8.72, 9.02, 9.02, 8.72, 9.48, 9.48, 9.48, 8.37, 8.53, 11.69, 13.15, 13.52, 13.26, 12.78, 12.72, 12.01, 11.38, 10.34, 10.65, 11.42, 10.32, 10.31, 9.23, 8.06, 6.52, 6.21, 5.6, 3.95, 4.44, 8.47, 10.01, 10.43, 10.23, 9.67, 11.44, 11.76, 11.17, 9.42, 8.85, 7.27, 6.73, 8.06, 9.67, 9.66, 10.01, 12.62, 12.62, 13.02, 13.88, 14.31, 14.99, 14.99, 14.99, 14.99, 13.25, 11.06, 10.19, 10.14, 10.24, 11.62, 11.18, 12.07, 12.52, 12.52, 12.45, 12.9, 14.3, 14.75, 15.14, 14.64, 14.16, 15.2, 14.22, 13.09, 10.78, 10.73, 9.34, 9.77, 10.2, 11.62, 13.15, 12.13, 10.65, 10.47, 12.56, 13.75, 12.46, 11.99, 11.37, 10.52, 8.85, 8.37, 8.61, 8.32, 8.85, 8.24, 7.64, 8.21, 8.21, 8.67, 8.72, 8.21, 8.37, 9.17, 8.37, 8.02, 10.62, 12.93, 13.57, 13.37, 13.39, 13.18, 12.78, 12.01, 12.01, 10.54, 9.22, 8.61, 9.07, 7.74, 7.6, 7.2, 6.28, 6.31, 4.81, 4.01, 4.99, 9.17, 10.85, 10.55, 9.52, 11.44, 12.11, 10.92, 9.48, 8.12, 7.36, 6.24, 7.35, 9.04, 9.66, 10.01, 10.37, 12.21, 12.62, 13.44, 14.31, 14.75, 14.99, 14.99, 14.99, 14.55, 12.92, 10.73, 9.39, 10.28, 11.18, 12.52, 11.18, 12.07, 12.96, 12.96, 12.96, 13.41, 13.41, 13.41, 15.65, 15.55, 14.75, 15.2, 15.49, 13.56, 13.01, 12.07, 12.07, 12.52, 12.52, 11.06, 11.2, 10.79, 7.59, 7.59, 10.4, 12.3, 12.39, 13.39, 12.33, 10.47, 8.05, 7.82, 8.61, 8.61, 8.73, 7.26, 8.07, 8.37, 8.37, 8.37, 8.37, 8.07, 8.53, 7.72, 7.72, 7.9, 11.8, 13.32, 13.15, 12.79, 12.37, 12.22, 11.7, 11.29, 10.43, 8.74, 7.11, 5.73, 5.5, 4.41, 4.58, 5.09, 4.91, 3.91, 3.34, 4.33, 5.78, 9.81, 10.23, 10.28, 10.66, 10.65, 10.58, 9.48, 8.42, 7.8, 7.09, 7.36, 8.93, 9.66, 9.66, 10.37, 10.37, 12.39, 13.02, 13.44, 14.23, 14.75, 14.99, 14.99, 14.95, 14.07, 12.47, 10.73, 10.25, 12.83, 12.96, 12.44, 12.52, 12.96, 12.96, 13.41, 12.96, 13.41, 13.41, 13.41, 14.3, 12.52, 11.62, 9.83, 13.23, 15.49, 13.86, 13.86, 15.2, 15.2, 13.86, 11.45, 9.3, 7.59, 7.59, 8.03, 8.38, 10.41, 11.9, 10.12, 8.3, 7.02, 7.26, 8.73, 9.8, 9.92, 9.48, 9.8, 8.02, 8.53, 8.53, 8.02, 7.72, 7.72, 8.35, 7.9, 7.65, 10.55, 12.72, 12.39, 12.33, 11.8, 11.44, 11.06, 10.47, 9.66, 8.74, 7.82, 6.51, 4.81, 4.58, 2.95, 2.56, 1.72, 1.62, 1.83, 4.86, 10.39, 8.37, 10.28, 9.9, 9.3, 9.27, 9.62, 9.59, 7.85, 7.8, 7.8, 7.36, 7.51, 9.23, 9.62, 9.66, 10.38, 10.01, 12.79, 12.79, 13.86, 14.23, 14.66, 14.66, 14.95, 14.66, 14.03, 12.45, 11.62, 12.01, 12.0, 13.86, 13.86, 13.31, 14.3, 14.75, 14.3, 12.71, 12.27, 12.96, 13.86, 14.3, 13.86, 11.18, 8.94, 10.73, 14.75, 14.3, 14.3, 16.09, 15.2, 13.01, 10.8, 7.59, 8.55, 8.05, 8.22, 9.17, 8.54, 7.96, 6.45, 5.52, 5.52, 7.14, 8.02, 9.64, 9.92, 9.92, 9.17, 9.64, 8.53, 8.22, 7.36, 6.71, 8.22, 8.41, 8.22, 8.49, 12.04, 13.5, 13.86, 11.81, 11.53, 9.8, 9.34, 8.18, 7.71, 7.32, 6.35, 5.64, 5.02, 3.58, 2.81, 0.73, 0.0, 0.0, 3.41, 11.03, 15.14, 13.87, 10.79, 10.19, 9.57, 8.93, 8.57, 8.57, 7.85, 7.85, 7.09, 7.15, 8.22, 10.01, 10.01, 9.62, 10.25, 9.0, 12.79, 12.79, 13.7, 14.23, 14.23, 14.66, 14.66, 14.23, 13.27, 12.27, 12.52, 12.96, 13.41, 13.86, 14.3, 14.11, 15.87, 15.2, 14.9, 15.78, 17.1, 16.91, 16.99, 14.75, 14.47, 11.71, 9.97, 9.97, 12.96, 14.3, 12.72, 12.04, 10.79, 9.97, 9.08, 9.3, 8.94, 7.9, 7.56, 7.69, 7.93, 6.0, 5.4, 5.77, 5.32, 6.44, 8.41, 8.35, 8.69, 9.08, 10.37, 10.66, 10.66, 10.41, 9.81, 9.67, 9.46, 9.67, 8.93, 9.86, 13.15, 13.75, 12.58, 12.18, 11.07, 9.57, 7.68, 6.98, 6.57, 5.86, 5.45, 4.95, 3.64, 2.95, 1.5, 0.0, 0.0, 5.28, 13.19, 13.97, 14.16, 14.26, 13.35, 11.44, 11.42, 10.19, 9.21, 8.9, 8.22, 7.85, 7.44, 7.9, 9.69, 10.37, 9.62, 10.25, 9.26, 9.34, 12.79, 12.79, 13.28, 14.13, 14.23, 14.23, 14.66, 14.13, 13.27, 12.66, 12.88, 13.41, 14.3, 14.3, 13.28, 12.04, 12.04, 14.03, 15.65, 16.48, 14.39, 13.99, 15.34, 15.61, 11.99, 11.6, 10.41, 6.08, 9.75, 8.94, 8.18, 8.38, 8.38, 7.33, 6.42, 7.27, 6.69, 6.97, 6.4, 6.51, 6.2, 6.2, 4.65, 4.58, 6.42, 7.13, 10.09, 10.09, 10.8, 11.2, 11.77, 12.96, 14.05, 14.58, 13.23, 12.29, 13.38, 12.39, 9.96, 11.45, 13.75, 13.05, 12.6, 11.9, 10.58, 10.75, 10.83, 10.19, 8.41, 7.89, 8.01, 6.6, 4.71, 2.04, 0.0, 0.0, 10.47, 14.23, 14.33, 13.48, 13.19, 12.86, 13.49, 13.51, 12.68, 12.07, 10.47, 9.2, 8.53, 7.44, 7.15, 8.53, 9.62, 9.69, 8.93, 9.59, 9.34, 10.41, 12.79, 12.79, 13.28, 13.7, 14.13, 14.13, 14.13, 13.28, 13.28, 12.72, 13.33, 13.86, 14.3, 14.66, 15.08, 15.05, 13.32, 12.3, 11.62, 12.96, 13.01, 10.37, 9.17, 8.1, 7.19, 6.94, 7.82, 7.82, 8.94, 8.67, 9.54, 9.58, 7.9, 7.59, 5.7, 6.3, 6.4, 6.71, 5.92, 5.64, 4.65, 4.81, 5.86, 6.24, 7.68, 9.6, 10.88, 11.3, 11.3, 11.72, 10.85, 11.79, 13.01, 13.96, 15.38, 16.0, 14.96, 13.95, 10.24, 11.4, 12.96, 12.45, 11.81, 11.58, 11.8, 11.64, 12.16, 13.76, 13.97, 14.03, 13.8, 12.64, 8.66, 5.2, 2.82, 13.01, 15.58, 15.98, 14.3, 13.85, 13.29, 12.89, 11.8, 11.14, 13.23, 12.16, 10.43, 8.49, 7.51, 7.15, 7.82, 8.6, 9.27, 8.97, 8.53, 9.17, 9.76, 10.66, 12.5, 12.5, 12.79, 13.28, 14.13, 14.13, 14.13, 13.28, 13.28, 12.66, 13.53, 14.23, 14.75, 15.11, 15.18, 15.47, 15.18, 14.75, 13.56, 12.79, 13.57, 13.57, 10.43, 6.6, 6.8, 8.66, 9.8, 11.53, 11.12, 11.21, 10.28, 9.6, 8.22, 6.42, 7.27, 7.21, 7.13, 7.27, 4.99, 4.36, 3.53, 5.0, 6.98, 8.73, 8.8, 9.89, 8.91, 9.86, 10.27, 10.68, 10.68, 10.75, 11.06, 11.18, 10.68, 9.65, 11.29, 13.59, 12.46, 10.85, 12.71, 13.44, 13.43, 13.43, 12.23, 13.19, 13.74, 13.74, 13.8, 13.19, 14.51, 15.05, 12.01, 7.42, 7.27, 14.11, 17.15, 16.0, 14.2, 13.65, 12.62, 11.54, 10.43, 8.94, 10.43, 9.95, 8.72, 7.9, 6.36, 7.15, 7.9, 8.6, 8.6, 8.07, 7.82, 8.97, 10.04, 11.04, 12.5, 12.5, 12.5, 13.07, 13.7, 14.13, 14.13, 13.7, 13.28, 13.07, 13.96, 14.23, 14.68, 14.9, 15.71, 16.05, 15.61, 15.61, 14.65, 11.06, 12.65, 15.2, 15.2, 15.2, 15.65, 14.84, 13.99, 13.19, 13.57, 13.23, 12.96, 10.96, 9.3, 7.27, 8.23, 8.43, 8.03, 6.11, 5.54, 3.45, 5.32, 8.22, 9.58, 9.6, 8.4, 8.91, 9.33, 9.33, 8.8, 9.2, 9.6, 9.2, 8.82, 6.79, 6.01, 7.33, 7.27, 8.53, 11.06, 12.09, 11.61, 12.04, 12.39, 12.27, 12.95, 12.95, 13.59, 12.56, 10.41, 10.61, 11.39, 12.78, 12.02, 7.82, 6.08, 13.46, 15.19, 13.9, 12.02, 10.75, 9.53, 8.72, 6.79, 6.0, 5.02, 7.36, 7.13, 6.21, 6.62, 8.07, 8.64, 7.9, 8.22, 7.82, 8.22, 11.02, 11.26, 11.26, 11.9, 11.9, 12.5, 13.07, 13.07, 13.57, 13.57, 13.48, 13.48, 13.07, 13.57, 14.47, 14.68, 14.9, 15.27, 16.05, 15.61, 16.15, 14.79, 11.38, 13.02, 15.49, 15.49, 13.02, 0.0, 16.09, 15.43, 15.49, 14.55, 14.3, 13.86, 13.59, 10.35, 8.55, 8.8, 7.37, 7.64, 6.4, 6.98, 6.44, 8.55, 9.32, 9.6, 8.8, 8.4, 8.48, 8.48, 8.3, 7.67, 7.33, 7.68, 6.64, 6.14, 6.64, 6.32, 6.32, 5.86, 5.7, 7.51, 9.76, 9.43, 9.86, 9.3, 9.16, 8.82, 9.16, 8.31, 8.24, 8.85, 9.5, 9.08, 9.31, 8.83, 7.88, 7.2, 10.47, 11.63, 10.92, 9.44, 8.14, 7.1, 5.46, 4.21, 3.32, 2.44, 2.34, 4.65, 5.72, 7.93, 8.37, 8.07, 7.48, 7.9, 8.94, 9.9, 10.48, 11.12, 11.12, 11.44, 11.44, 12.13, 12.66, 13.07, 13.07, 13.57, 13.48, 13.48, 13.48, 13.48, 14.47, 14.68, 14.9, 14.84, 15.71, 15.27, 16.15, 14.79, 11.7, 15.27, 16.09, 16.01, 13.99, 10.75, 15.2, 15.43, 15.65, 15.65, 16.09, 15.49, 15.43, 13.7, 11.87, 7.47, 7.6, 8.0, 8.23, 8.23, 8.82, 9.96, 8.63, 8.43, 6.99, 7.67, 7.67, 7.67, 7.67, 6.32, 6.32, 4.6, 4.6, 5.21, 6.3, 6.95, 6.3, 5.46, 4.88, 6.24, 8.22, 8.82, 7.59, 6.87, 5.32, 5.32, 5.21, 5.46, 6.3, 8.22, 9.76, 9.8, 6.73, 5.8, 6.46, 7.15, 8.86, 10.18, 10.22, 9.43, 6.99, 5.81, 5.11, 3.0, 2.63, 1.9, 1.76, 2.41, 7.82, 8.37, 7.93, 7.08, 7.18, 8.65, 9.92, 10.66, 10.15, 10.55, 10.55, 11.44, 11.44, 11.44, 11.75, 12.66, 13.07, 13.57, 13.57, 13.48, 13.48, 13.48, 14.4, 14.4, 14.84, 14.42, 14.4, 15.12, 15.41, 15.11, 13.8, 15.65, 15.65, 15.14, 14.4, 14.55, 15.2, 15.65, 15.65, 16.09, 16.41, 16.41, 15.69, 15.69, 13.7, 9.75, 7.01, 8.33, 8.18, 7.27, 7.27, 7.51, 7.6, 6.44, 6.79, 7.15, 7.67, 6.98, 6.32, 4.6, 4.6, 4.0, 4.0, 4.0, 5.59, 6.64, 6.64, 6.3, 6.3, 6.58, 7.59, 7.27, 6.5, 5.32, 4.05, 3.61, 3.32, 2.54, 4.37, 5.46, 6.16, 7.0, 5.36, 5.06, 5.63, 7.22, 9.23, 9.54, 8.62, 7.95, 6.63, 4.81, 3.93, 3.22, 3.14, 5.0, 6.67, 7.54, 7.54, 7.1, 6.94, 7.64, 7.9, 9.3, 10.15, 10.29, 10.01, 9.56, 9.56, 11.44, 11.44, 11.09, 11.75, 12.39, 12.39, 12.79, 13.39, 13.48, 13.48, 13.48, 13.99, 14.4, 13.99, 14.31, 15.93, 14.22, 15.34, 14.84, 14.23, 15.2, 15.65, 14.75, 15.65, 14.64, 16.22, 12.22, 16.05, 17.26, 14.4, 15.18, 15.47, 15.69, 14.94, 14.03, 10.52, 8.0, 5.36, 4.6, 5.0, 4.4, 4.83, 4.2, 5.36, 5.63, 6.64, 5.86, 4.6, 4.6, 2.83, 2.97, 4.0, 5.86, 6.32, 6.64, 6.64, 6.3, 6.58, 6.98, 6.24, 5.32, 5.32, 3.92, 3.65, 2.83, 2.57, 3.27, 3.45, 2.97, 3.82, 3.65, 4.43, 5.86, 6.4, 6.42, 6.9, 6.66, 6.54, 6.42, 4.95, 3.0, 3.47, 4.89, 5.8, 6.24, 6.24, 6.24, 5.3, 5.86, 6.62, 8.12, 9.66, 9.67, 10.15, 10.63, 9.96, 9.59, 9.59, 10.86, 10.86, 11.09, 11.75, 11.75, 12.39, 12.79, 12.79, 13.19, 13.19, 13.19, 13.99, 13.99, 13.81, 13.81, 13.88, 14.64, 14.22, 15.49, 15.08, 16.37, 15.55, 15.2, 16.54, 15.93, 15.9, 15.9, 13.99, 14.23, 15.18, 15.61, 15.47, 15.47, 15.69, 15.78, 13.59, 9.3, 6.44, 2.97, 2.21, 2.06, 2.83, 1.94, 2.83, 3.63, 3.82, 3.49, 2.97, 2.97, 2.83, 2.83, 5.59, 6.98, 6.98, 6.45, 6.32, 6.58, 6.24, 6.31, 5.54, 4.23, 4.05, 4.23, 4.05, 3.63, 4.34, 4.96, 5.21, 4.92, 4.47, 4.24, 4.67, 4.36, 4.03, 4.08, 3.42, 1.88, 0.92, 2.43, 3.48, 4.18, 4.6, 5.85, 6.21, 5.2, 4.68, 4.31, 4.31, 5.3, 6.44, 8.93, 10.28, 10.29, 9.96, 9.9, 10.22, 9.02, 9.02, 9.8, 10.86, 10.52, 10.52, 11.75, 12.39, 12.79, 12.79, 13.19, 13.19, 13.19, 13.81, 13.81, 13.19, 13.97, 14.61, 15.05, 13.86, 12.96, 14.99, 16.12, 15.61, 15.93, 15.05, 14.99, 15.04, 13.97, 14.65, 15.07, 15.49, 15.49, 15.2, 15.9, 15.69, 16.22, 14.11, 10.73, 5.98, 4.8, 2.46, 2.17, 2.04, 2.13, 2.13, 3.3, 3.98, 3.49, 2.97, 2.97, 2.83, 4.6, 6.32, 6.98, 6.98, 7.33, 6.32, 6.18, 6.53, 6.24, 5.1, 4.05, 4.05, 4.05, 4.05, 4.74, 5.63, 6.48, 7.13, 6.84, 6.7, 6.43, 6.09, 4.55, 0.89, 0.0, 0.0, -3.05, -2.19, 0.0, 3.69, 6.62, 7.2, 7.42, 6.2, 4.65, 4.13, 4.07, 5.18, 7.22, 7.27, 9.0, 9.96, 10.3, 9.9, 9.48, 9.1, 8.37, 8.37, 9.8, 9.8, 10.52, 10.52, 11.28, 12.39, 12.39, 12.79, 13.19, 13.19, 12.81, 13.81, 13.81, 12.81, 12.81, 13.97, 14.61, 14.16, 13.67, 14.55, 15.87, 15.47, 15.04, 15.04, 15.69, 16.33, 15.9, 15.04, 14.38, 14.79, 15.2, 15.2, 15.9, 15.69, 16.22, 14.94, 11.8, 9.17, 5.0, 4.05, 3.14, 2.04, 2.97, 3.3, 2.98, 2.83, 3.65, 1.62, 1.54, 3.32, 6.01, 7.28, 7.67, 6.98, 7.33, 6.64, 6.64, 6.83, 5.98, 4.88, 4.98, 3.99, 4.2, 4.98, 5.63, 6.48, 6.48, 7.59, 8.64, 10.09, 9.8, 9.73, 8.2, 3.68, -2.93, -1.48, 0.0, 0.0, 3.92, 5.98, 7.36, 7.11, 6.43, 5.63, 4.97, 5.78, 6.7, 8.22, 8.9, 9.26, 9.27, 9.56, 9.48, 9.48, 8.37, 7.9, 7.78, 7.78, 9.8, 9.8, 9.8, 10.52, 11.28, 12.03, 12.03, 12.42, 12.81, 12.81, 13.2, 13.2, 12.81, 12.81, 12.27, 13.97, 13.97, 14.18, 13.57, 14.55, 15.93, 15.49, 14.18, 14.61, 15.27, 16.82, 17.26, 16.33, 15.9, 14.38, 14.38, 14.79, 14.79, 15.47, 15.27, 14.94, 12.52, 9.48, 5.2, 4.23, 3.45, 2.97, 2.97, 4.0, 3.6, 2.51, 3.65, 1.84, 3.15, 5.69, 7.28, 7.28, 6.63, 6.32, 6.32, 7.33, 7.13, 6.95, 6.87, 4.5, 4.74, 4.98, 5.2, 6.11, 6.95, 6.77, 7.27, 7.74, 8.82, 9.08, 9.76, 10.43, 7.49, 4.88, 0.0, 2.83, 3.6, 4.81, 5.0, 4.67, 4.67, 4.53, 4.27, 4.24, 6.76, 8.42, 9.26, 9.17, 9.48, 8.72, 8.85, 8.46, 8.37, 8.37, 7.9, 6.77, 6.21, 6.21, 9.8, 9.8, 9.02, 9.8, 11.28, 11.28, 12.03, 12.42, 12.81, 12.0, 12.37, 13.2, 13.2, 11.33, 12.65, 13.59, 13.97, 13.56, 14.18, 14.6, 15.49, 15.47, 14.61, 12.79, 13.99, 15.93, 16.82, 17.26, 16.76, 15.2, 14.79, 13.97, 14.65, 14.38, 14.84, 14.53, 13.42, 9.8, 6.7, 5.32, 3.61, 3.25, 4.4, 4.0, 2.83, 2.51, 1.93, 1.54, 4.37, 5.03, 6.01, 6.01, 6.01, 6.01, 6.01, 6.32, 6.52, 7.13, 6.87, 6.3, 5.69, 6.01, 6.11, 6.95, 6.95, 6.77, 7.74, 9.09, 8.55, 8.12, 6.77, 5.26, 8.3, 8.73, 5.65, 1.77, 1.28, 1.16, 0.0, 0.0, 0.0, 0.0, 0.84, 5.81, 9.62, 9.56, 9.89, 9.06, 9.06, 9.06, 7.93, 7.73, 7.9, 7.12, 6.56, 6.21, 6.21, 6.21, 9.02, 9.02, 9.02, 9.02, 9.48, 10.18, 12.03, 12.42, 12.42, 12.0, 12.37, 12.37, 12.37, 11.68, 12.65, 13.59, 13.56, 13.56, 13.56, 14.61, 15.49, 15.9, 14.79, 13.99, 13.7, 14.99, 16.37, 16.82, 16.33, 16.33, 15.2, 14.79, 14.65, 13.97, 13.97, 13.59, 13.03, 10.43, 6.94, 5.32, 4.6, 4.4, 4.2, 4.2, 2.98, 1.65, 0.76, 0.63, 1.32, 2.75, 3.91, 5.06, 4.83, 5.69, 6.79, 6.79, 6.32, 5.69, 6.14, 6.95, 6.95, 6.01, 5.82, 6.4, 5.63, 7.4, 8.55, 8.82, 8.12, 6.17, 3.82, 3.58, 7.38, 10.65, 9.2, 6.7, 0.0, -2.65, -3.01, -2.82, -4.34, -2.15, 3.69, 10.52, 10.87, 9.89, 9.06, 8.3, 8.59, 9.02, 8.31, 7.12, 6.56, 6.31, 5.72, 5.72, 5.72, 5.72, 8.31, 8.31, 8.73, 8.73, 9.48, 9.48, 10.65, 11.9, 12.27, 11.33, 11.33, 12.37, 11.68, 11.06, 12.02, 12.65, 13.56, 12.81, 12.81, 13.97, 15.04, 15.69, 14.57, 14.18, 14.94, 14.99, 15.49, 16.37, 16.76, 16.12, 16.12, 15.2, 15.49, 14.65, 13.97, 13.59, 11.87, 11.87, 7.69, 5.54, 4.6, 5.45, 5.21, 4.2, 2.83, 1.58, 0.0, 0.0, 0.0, 0.77, 1.84, 2.99, 4.0, 6.08, 6.79, 6.79, 5.1, 5.1, 6.32, 6.95, 6.14, 5.7, 4.94, 5.2, 5.82, 7.87, 8.82, 9.2, 7.27, 5.7, 3.98, 4.11, 6.47, 9.93, 12.32, 10.23, 7.88, -2.12, -8.93, -5.77, -1.9, 5.34, 11.69, 12.05, 9.85, 9.36, 8.66, 8.18, 8.18, 7.93, 7.74, 6.67, 5.4, 5.06, 5.06, 5.6, 5.06, 5.06, 8.05, 8.05, 8.73, 8.73, 8.73, 9.8, 10.65, 10.99, 12.27, 11.33, 11.33, 11.68, 11.68, 11.06, 11.06, 12.65, 13.56, 12.81, 12.81, 13.2, 14.38, 14.39, 14.18, 14.57, 15.69, 15.87, 15.43, 15.87, 16.31, 15.69, 15.69, 15.87, 15.27, 15.2, 15.2, 13.39, 13.02, 13.02, 9.73, 8.05, 6.76, 6.69, 5.9, 4.56, 3.32, 2.23, 0.77, 0.0, 0.0, 0.0, 1.32, 2.54, 4.47, 5.06, 5.06, 5.06, 5.1, 4.83, 6.28, 5.69, 5.06, 4.98, 4.6, 4.94, 7.27, 7.96, 8.55, 7.27, 6.59, 4.8, 3.21, 2.16, 4.05, 8.0, 11.06, 12.21, 11.45, 6.97, -11.7, 0.0, 8.85, 11.9, 12.65, 10.99, 8.76, 9.02, 9.11, 8.56, 7.79, 6.43, 5.8, 6.0, 6.15, 5.6, 5.06, 5.25, 4.75, 4.75, 8.05, 8.05, 8.05, 8.73, 8.73, 9.8, 9.8, 10.99, 11.33, 11.33, 11.33, 11.68, 10.75, 11.06, 11.06, 12.02, 12.27, 13.56, 13.2, 13.58, 13.02, 12.57, 12.92, 14.18, 15.69, 15.69, 15.87, 14.84, 14.53, 15.78, 15.87, 15.87, 15.27, 14.39, 14.39, 14.39, 13.39, 13.02, 10.02, 9.44, 8.44, 6.98, 5.63, 5.63, 5.21, 4.83, 3.3, 0.0, -1.32, -1.84, 0.0, 4.14, 5.37, 5.37, 4.47, 4.02, 3.4, 5.69, 5.93, 5.03, 4.46, 3.3, 3.45, 5.2, 7.13, 8.93, 7.27, 5.9, 4.18, 3.82, 3.06, 1.09, 1.08, 3.0, 5.65, 7.45, 7.91, 6.94, 4.11, 3.68, 6.24, 8.41, 9.02, 10.12, 8.59, 8.56, 8.2, 7.93, 7.13, 5.48, 4.65, 4.81, 4.98, 4.81, 5.11, 4.21, 3.96, 3.96, 8.05, 8.05, 8.05, 7.79, 7.79, 8.87, 9.8, 10.99, 11.33, 11.33, 11.33, 11.68, 10.75, 10.02, 10.02, 11.06, 12.65, 13.19, 12.65, 12.02, 12.02, 11.06, 11.38, 14.18, 15.69, 15.69, 15.27, 14.84, 14.53, 15.34, 16.09, 16.09, 15.87, 15.27, 14.39, 14.39, 13.39, 13.39, 11.06, 10.02, 9.8, 7.27, 5.46, 6.14, 6.3, 6.32, 5.46, -4.6, -6.64, 0.0, 4.56, 6.18, 5.77, 4.74, 4.58, 3.45, 3.97, 5.37, 5.06, 3.91, 3.6, 2.17, 3.3, 6.01, 7.47, 7.27, 6.44, 4.6, 2.04, 2.02, 2.08, 1.04, 0.0, -1.04, -0.95, 0.0, 3.22, 6.31, 6.31, 4.36, 3.82, 4.98, 7.36, 7.59, 8.59, 7.79, 6.57, 5.73, 5.02, 4.87, 3.87, 3.87, 3.66, 4.55, 3.87, 3.25, 3.14, 3.14, 7.11, 7.11, 7.11, 7.11, 7.79, 8.05, 8.87, 10.99, 11.33, 11.33, 11.33, 10.43, 9.73, 9.09, 7.76, 11.06, 13.02, 13.59, 12.65, 11.68, 10.02, 8.43, 11.06, 15.27, 15.27, 15.69, 15.27, 13.99, 13.42, 15.34, 15.65, 15.65, 15.49, 14.84, 14.84, 13.99, 13.39, 13.39, 12.02, 11.06, 10.43, 8.01, 5.98, 5.44, 4.58, 6.01, 7.26, 4.48, 5.75, 6.95, 5.72, 4.43, 5.06, 4.36, 3.64, 3.97, 3.68, 3.45, 3.2, 3.0, 1.18, 1.11, 2.98, 6.32, 6.11, 6.4, 6.17, 5.95, 3.7, 1.16, 1.18, 2.08, 2.04, 0.0, -2.01, -2.14, 0.0, 4.01, 6.26, 6.31, 4.96, 4.36, 5.36, 5.94, 5.72, 6.57, 5.11, 3.71, 2.95, 2.85, 2.85, 2.41, 2.09, 3.25, 3.07, 3.17, 2.41, 2.41, 7.11, 7.11, 7.11, 7.11, 7.79, 8.05, 8.87, 9.16, 11.33, 10.43, 10.43, 10.43, 8.83, 8.29, 7.76, 9.77, 13.42, 13.03, 11.87, 10.75, 8.43, 7.82, 11.87, 14.84, 15.27, 14.94, 14.94, 14.84, 14.11, 14.99, 15.65, 15.49, 15.05, 14.42, 14.42, 13.59, 13.99, 13.02, 12.02, 12.02, 10.75, 8.59, 7.15, 5.21, 4.14, 3.65, 5.28, 4.98, 6.94, 6.59, 5.0, 3.49, 3.49, 3.49, 3.12, 3.33, 3.2, 2.82, 1.49, 1.63, 0.0, 1.2, 3.52, 4.66, 4.66, 4.44, 4.66, 4.8, 4.6, 1.93, 1.33, 4.36, 4.97, 3.9, 0.0, -2.25, 0.0, 1.88, 3.87, 5.51, 5.46, 6.47, 6.76, 5.86, 4.12, 3.39, 2.21, 2.23, 1.45, 0.73, 0.73, 0.73, 0.73, 0.73, 2.16, 1.53, 1.48, 1.48, 7.11, 7.11, 7.11, 7.11, 7.11, 8.05, 8.87, 9.16, 10.43, 10.43, 10.43, 10.43, 9.44, 8.06, 7.0, 9.77, 13.42, 13.42, 12.22, 9.49, 6.8, 7.82, 13.42, 14.53, 14.53, 14.94, 14.94, 14.42, 16.22, 14.11, 15.05, 15.49, 14.61, 14.42, 13.99, 13.59, 13.59, 13.02, 12.02, 12.02, 11.06, 9.16, 5.77, 4.88, 2.7, 1.52, 1.33, 3.85, 4.65, 4.98, 3.55, 3.64, 3.38, 3.38, 2.84, 2.4, 2.64, 2.26, 1.49, 0.0, 0.0, 1.25, 3.52, 2.98, 2.17, 2.17, 1.2, 1.62, 2.95, 2.95, 3.3, 3.99, 4.71, 4.12, 3.12, 0.0, 0.0, 0.89, 2.41, 3.57, 5.09, 6.32, 6.81, 4.87, 2.81, 1.88, 1.16, 0.0, 0.0, 0.0, 0.0, -0.7, 0.0, 0.0, 0.7, 0.0, 0.0, 0.0, 7.11, 7.11, 6.0, 6.0, 6.0, 8.05, 8.05, 9.16, 9.44, 9.44, 9.44, 10.43, 9.44, 8.57, 7.0, 8.68, 12.22, 12.22, 11.06, 9.49, 7.0, 9.77, 13.42, 14.11, 14.53, 14.53, 15.34, 14.99, 14.11, 15.78, 13.75, 14.61, 14.84, 14.84, 14.42, 14.42, 13.59, 12.65, 12.02, 12.02, 11.06, 9.44, 7.28, 5.1, 4.05, 1.39, 1.28, 2.81, 4.08, 3.35, 4.71, 5.15, 4.87, 4.16, 3.33, 2.8, 2.04, 1.72, 1.1, 0.0, 0.0, 1.25, 1.75, 2.21, 2.33, 2.06, 1.05, 1.05, 1.45, 2.95, 2.83, 2.95, 2.0, 0.95, 1.94, 2.46, 1.89, 1.6, 2.09, 2.93, 3.62, 4.5, 3.59, 2.72, 1.58, 0.0, 0.0, -0.61, -1.62, -1.61, -1.61, -1.43, -1.48, -1.4, -1.45, 0.0, -0.69, -0.69, 5.8, 5.8, 6.0, 6.0, 6.0, 6.88, 8.05, 9.16, 9.16, 9.44, 9.44, 9.44, 9.44, 8.57, 6.8, 7.76, 10.02, 10.75, 10.75, 8.68, 8.68, 9.77, 13.42, 14.11, 14.11, 14.53, 15.34, 14.9, 14.99, 14.55, 13.99, 13.99, 13.99, 14.42, 14.42, 14.42, 13.59, 12.65, 13.02, 12.02, 12.02, 9.73, 7.79, 6.24, 3.61, 2.71, 1.44, 1.77, 3.82, 4.2, 5.59, 5.59, 6.01, 4.46, 3.77, 3.55, 2.35, 2.2, 1.6, 0.88, 0.0, 1.95, 3.8, 3.32, 3.6, 2.33, 3.35, 2.06, 1.62, 2.95, 3.82, 2.71, 0.0, 0.0, 0.96, 4.52, 5.01, 2.41, 1.42, 1.44, 1.44, 1.6, 1.83, 0.94, 0.97, 0.0, -0.74, -1.28, -1.51, -1.55, -1.5, -2.45, -2.18, -2.13, -1.43, -1.4, -1.43, -1.43, 5.8, 5.8, 6.0, 6.0, 6.0, 6.65, 8.05, 9.16, 9.16, 9.44, 9.44, 9.44, 9.44, 8.57, 6.8, 7.76, 9.73, 9.73, 9.73, 8.68, 8.68, 9.77, 13.42, 14.84, 14.11, 14.11, 15.34, 14.9, 14.9, 14.99, 13.99, 13.57, 13.57, 13.57, 13.99, 14.42, 13.59, 12.65, 12.65, 13.02, 12.02, 11.68, 9.02, 6.16, 3.61, 1.52, 0.0, 0.0, 2.93, 6.17, 6.95, 6.64, 6.01, 5.44, 4.46, 3.77, 2.67, 2.51, 1.63, 0.88, 0.0, 1.95, 3.6, 3.8, 3.32, 3.32, 3.35, 3.14, 2.04, 2.95, 2.49, 2.52, 1.38, 0.0, 0.95, 4.55, 6.5, 4.78, 2.44, 0.8, 0.0, 0.0, 1.0, 0.98, 0.92, 0.81, 0.0, 0.0, 0.0, 0.0, 0.0, 0.0, 0.0, 0.0, 0.0, 0.0, -1.38, -1.38, 5.8, 5.8, 6.0, 6.0, 6.0, 6.0, 8.05, 8.87, 9.16, 9.16, 9.44, 9.44, 8.57, 6.6, 5.18, 5.34, 7.54, 9.73, 8.43, 7.76, 7.0, 9.77, 13.99, 14.84, 14.84, 14.11, 14.9, 14.9, 14.47, 14.55, 14.55, 13.99, 13.57, 13.15, 13.57, 13.57, 13.19, 13.59, 12.65, 12.65, 12.65, 11.68, 10.12, 7.02, 5.1, 2.02, -3.39, 0.0, 6.7, 7.9, 8.18, 7.56, 6.64, 6.32, 4.46, 3.99, 3.6, 2.67, 2.51, 0.82, 0.0, 0.81, 1.95, 1.25, 2.33, 1.54, 2.06, 2.04, 1.04, 1.93, 1.39, 2.6, 2.4, 1.77, 0.95, 3.69, 5.37, 6.05, 5.65, 3.93, 2.19, 1.08, 0.96, 1.71, 2.47, 2.47, 1.61, 1.5, 1.54, 1.54, 1.54, 0.77, 0.8, 0.78, 0.74, 0.69, 0.0, 0.0, 4.55, 4.55, 4.71, 4.71, 6.0, 6.0, 8.05, 8.87, 9.16, 9.16, 9.16, 9.44, 7.32, 6.6, 5.18, 5.34, 7.54, 7.54, 7.54, 6.16, 7.0, 12.22, 13.99, 14.84, 14.11, 14.11, 14.9, 14.9, 14.55, 14.55, 14.55, 13.99, 13.57, 13.15, 13.15, 12.39, 12.79, 13.19, 13.19, 13.59, 12.65, 12.65, 10.65, 8.22, 5.72, 3.49, -3.25, 0.0, 9.3, 10.09, 8.73, 7.9, 7.56, 6.01, 4.71, 3.99, 3.99, 2.83, 1.73, 0.89, 0.88, 0.0, 0.0, 1.25, 1.2, 1.54, 1.05, 0.99, 1.04, 0.93, 1.93, 2.71, 3.53, 3.76, 2.15, 2.18, 2.81, 4.21, 5.89, 6.77, 6.06, 3.92, 2.53, 2.53, 2.45, 2.97, 2.13, 2.22, 1.55, 1.5, 1.5, 1.55, 0.74, 0.81, 0.0, 0.0, 0.0, 0.69, 4.1, 4.1, 4.55, 4.71, 6.0, 6.0, 8.05, 8.05, 9.16, 9.16, 7.93, 7.1, 7.1, 5.02, 5.18, 5.34, 5.34, 5.99, 5.99, 6.16, 8.05, 13.42, 13.99, 13.99, 13.42, 14.11, 14.9, 14.9, 14.75, 14.55, 14.11, 14.11, 13.57, 13.15, 12.39, 12.39, 12.39, 12.79, 13.19, 13.19, 13.19, 11.87, 10.47, 8.38, 6.01, 5.7, 2.19, 4.32, 9.27, 9.66, 8.82, 7.9, 7.59, 6.01, 4.71, 3.99, 3.35, 2.98, 1.84, 1.84, 0.88, 0.0, 0.0, 1.18, 1.14, 0.0, 1.47, 1.05, 0.99, 2.04, 2.7, 4.08, 4.81, 4.76, 4.34, 1.23, 0.0, 0.0, 2.84, 5.41, 5.91, 4.81, 3.25, 3.34, 3.34, 2.81, 2.09, 2.33, 1.51, 0.74, 0.74, 0.0, 0.0, 0.0, 0.0, 0.0, -0.72, 0.0, 4.1, 4.1, 4.55, 4.71, 6.0, 6.0, 6.65, 8.05, 9.16, 9.16, 7.93, 7.1, 5.02, 5.02, 5.18, 3.58, 3.69, 4.18, 5.99, 6.8, 9.77, 13.42, 14.84, 13.59, 13.59, 13.7, 14.55, 14.55, 14.75, 14.55, 14.11, 14.11, 13.57, 12.39, 11.88, 11.88, 12.39, 12.39, 12.79, 12.79, 13.19, 11.52, 11.5, 9.2, 6.95, 6.76, 6.65, 7.79, 9.17, 9.17, 8.85, 8.53, 7.15, 5.7, 4.71, 3.17, 3.35, 2.98, 1.84, 1.84, 0.96, 0.0, 0.0, 0.0, 0.0, 0.0, 1.0, 0.99, 1.94, 2.97, 3.99, 4.6, 3.96, 4.89, 6.19, 5.0, 0.0, -1.3, 1.13, 4.07, 5.1, 5.1, 3.71, 2.97, 2.25, 2.2, 2.12, 1.5, 0.74, 0.0, 0.0, 0.0, 0.0, -0.81, -0.81, -0.81, -1.38, -0.72, 2.81, 2.81, 4.55, 4.55, 4.71, 6.0, 6.65, 8.05, 8.87, 7.93, 7.1, 7.1, 5.02, 5.02, 3.2, 3.2, 3.69, 4.18, 5.99, 6.8, 11.87, 13.59, 15.04, 13.99, 13.59, 13.99, 14.6, 14.6, 14.6, 14.6, 14.11, 13.15, 13.15, 11.88, 11.88, 12.39, 13.15, 13.15, 12.39, 12.39, 12.27, 11.52, 11.09, 8.22, 6.44, 6.67, 7.58, 9.31, 9.02, 8.73, 7.79, 8.01, 6.45, 5.95, 4.0, 3.17, 3.35, 2.06, 1.95, 1.96, 0.89, 0.0, 0.0, 0.0, 1.58, 1.67, 1.05, 1.54, 2.98, 3.81, 4.78, 4.78, 4.08, 3.96, 6.1, 7.4, 7.06, 3.44, 3.69, 4.65, 5.72, 5.65, 4.3, 2.76, 1.38, 1.4, 0.75, 0.0, 0.0, 0.0, -0.76, -0.76, -1.51, -1.61, -1.61, -2.39, -2.31, -2.31, 2.81, 2.81, 4.55, 4.55, 4.55, 6.0, 6.65, 6.88, 6.88, 6.88, 6.88, 7.1, 5.02, 4.52, 3.1, 1.63, 1.83, 4.18, 5.81, 8.43, 12.65, 13.97, 13.97, 13.97, 13.97, 14.18, 14.18, 14.6, 14.6, 14.6, 14.11, 13.15, 11.88, 11.88, 11.99, 13.15, 13.15, 13.15, 12.39, 12.39, 12.27, 10.12, 9.8, 7.24, 5.2, 3.96, 7.1, 6.88, 6.43, 6.43, 7.19, 6.7, 6.2, 4.4, 3.8, 3.6, 2.33, 2.06, 1.95, 0.94, 0.95, 0.0, 0.0, 0.0, 1.58, 3.15, 3.32, 3.32, 4.21, 4.98, 5.21, 3.99, 3.07, 2.82, 3.85, 5.85, 8.4, 10.2, 8.4, 5.48, 6.51, 6.52, 4.88, 2.76, 1.43, 0.0, 0.0, 0.0, -0.74, -0.76, -1.51, -1.51, -2.25, -2.39, -3.14, -3.23, -3.23, -3.23, 2.81, 2.81, 3.14, 4.55, 4.55, 6.0, 6.65, 6.65, 6.88, 6.88, 6.88, 5.46, 5.02, 4.52, 3.1, 1.63, 3.58, 5.81, 5.81, 10.75, 13.2, 14.23, 13.97, 13.2, 13.56, 13.15, 14.18, 14.18, 14.6, 14.55, 13.57, 12.87, 11.88, 11.5, 12.72, 12.72, 13.32, 13.15, 12.39, 12.39, 11.17, 10.12, 9.8, 7.51, 6.21, 6.44, 6.0, 7.19, 6.7, 6.45, 6.2, 6.2, 4.6, 4.0, 3.8, 2.54, 2.21, 1.95, 1.0, 0.94, 1.01, 0.0, 0.0, 0.0, 1.95, 3.15, 3.32, 4.6, 4.94, 4.74, 3.3, 2.04, 2.13, 1.92, 2.61, 4.1, 6.35, 9.12, 11.14, 9.89, 7.4, 6.68, 5.72, 3.57, 0.73, 0.0, 0.0, -0.74, -0.79, -1.51, -2.18, -2.18, -2.97, -3.14, -3.23, -3.11, -3.11, -3.11, 2.72, 2.72, 3.14, 4.55, 4.55, 5.8, 6.65, 6.65, 6.65, 6.88, 5.46, 4.87, 4.52, 3.1, 1.42, 1.63, 4.05, 7.32, 7.32, 11.33, 13.59, 14.23, 13.2, 13.2, 12.65, 13.56, 13.56, 14.18, 14.18, 13.99, 13.57, 12.27, 11.88, 13.15, 12.72, 12.89, 12.89, 13.15, 12.39, 11.88, 11.17, 10.12, 9.8, 9.17, 7.54, 6.21, 6.44, 6.94, 6.45, 5.95, 5.46, 5.21, 3.8, 3.8, 3.8, 2.54, 2.09, 0.94, 0.94, 0.94, 1.01, 0.0, 0.0, 0.0, 2.06, 3.8, 3.32, 3.17, 4.44, 3.14, 1.62, 1.11, 1.04, 1.84, 2.71, 3.55, 5.15, 6.66, 8.16, 10.42, 10.42, 10.13, 8.01, 5.8, 2.85, 0.0, -0.76, -0.79, -1.51, -2.31, -2.2, -3.82, -4.1, -3.96, -3.82, -3.19, -3.19, -3.19, 2.72, 2.72, 3.04, 4.55, 4.55, 4.55, 5.28, 5.28, 5.28, 5.46, 5.46, 4.87, 4.52, 2.81, 1.42, 1.83, 5.81, 7.32, 7.32, 9.44, 12.81, 12.81, 12.65, 12.65, 12.27, 13.19, 13.56, 13.56, 13.99, 13.99, 12.79, 12.27, 12.39, 13.15, 12.72, 12.89, 12.89, 13.15, 12.39, 11.88, 10.82, 11.17, 9.8, 9.48, 7.82, 7.54, 7.82, 7.82, 6.7, 6.2, 5.7, 4.0, 3.6, 3.6, 2.54, 2.54, 2.21, 1.07, 0.89, 0.89, 0.95, 0.0, 0.0, 0.0, 0.96, 1.75, 1.67, 1.14, 1.05, 1.11, 1.11, 1.04, 1.93, 1.84, 2.71, 3.55, 4.36, 5.02, 6.4, 8.05, 9.48, 11.96, 11.37, 8.9, 5.73, 2.35, 0.0, -0.81, -1.71, -2.4, -3.47, -3.85, -4.87, -4.17, -3.68, -2.94, -2.94, -2.94, 2.72, 2.72, 3.04, 3.14, 4.55, 4.55, 5.11, 5.28, 5.28, 5.46, 5.46, 4.87, 3.01, 1.42, 1.58, 3.47, 5.63, 7.1, 9.16, 9.16, 12.27, 12.27, 12.27, 12.65, 12.65, 12.27, 12.79, 13.19, 13.19, 13.19, 13.19, 12.79, 12.79, 13.15, 12.72, 12.72, 12.72, 12.72, 12.39, 11.88, 10.82, 10.82, 10.82, 9.48, 8.1, 7.54, 7.82, 7.82, 6.94, 6.45, 5.95, 4.2, 4.0, 3.6, 2.54, 2.54, 1.07, 1.07, 0.89, 0.83, 0.89, 0.0, 0.0, 0.0, 0.0, 0.0, 0.0, 0.0, 0.0, 1.05, 0.99, 2.04, 1.93, 1.92, 2.71, 3.68, 3.44, 4.24, 5.67, 6.65, 7.59, 9.63, 11.56, 11.44, 8.8, 4.91, 1.01, 0.0, 0.0, -1.0, -0.97, -2.0, -3.21, -4.36, -3.39, -1.33, -1.33, -1.33, 2.72, 2.72, 3.04, 3.04, 3.14, 4.55, 5.11, 5.28, 5.28, 5.28, 3.36, 3.36, 3.01, 1.42, 0.0, 3.47, 5.63, 7.93, 7.93, 10.12, 12.27, 11.52, 11.87, 11.87, 11.87, 11.52, 12.79, 12.39, 12.27, 12.27, 12.65, 13.19, 12.79, 12.39, 12.72, 12.72, 12.72, 12.72, 11.99, 11.5, 10.47, 10.82, 10.82, 10.47, 8.1, 7.82, 8.1, 7.82, 7.82, 6.45, 4.8, 4.6, 4.2, 4.0, 2.54, 2.54, 1.07, 1.07, 1.01, 0.95, 0.89, 0.0, 0.0, 0.0, 0.0, 0.0, 1.58, 1.67, 1.75, 2.06, 2.04, 2.04, 2.02, 1.92, 2.82, 2.71, 3.42, 4.21, 5.8, 7.03, 6.88, 8.29, 10.74, 12.56, 10.67, 7.49, 4.79, 4.52, 4.99, 4.64, 3.97, 2.94, 0.0, -1.69, -3.98, -2.1, -2.1, -2.1, 2.72, 2.72, 2.72, 3.04, 3.04, 3.14, 5.11, 5.28, 3.68, 3.25, 3.36, 3.01, 1.53, 0.0, 1.58, 3.47, 5.63, 6.4, 7.93, 10.12, 10.12, 9.22, 9.22, 10.43, 11.52, 11.52, 11.17, 10.82, 10.82, 11.88, 11.88, 12.79, 12.79, 12.39, 11.99, 12.72, 12.72, 12.72, 11.99, 11.5, 10.47, 10.47, 10.82, 10.47, 9.17, 7.82, 8.1, 8.1, 7.54, 7.26, 4.8, 4.6, 4.4, 4.2, 2.54, 2.21, 1.14, 1.14, 1.07, 0.95, 0.95, 0.0, 0.0, 0.0, 0.0, 0.0, 2.4, 2.21, 3.35, 2.17, 2.04, 1.04, 1.93, 1.84, 1.92, 2.71, 3.68, 4.33, 5.93, 6.79, 7.03, 7.49, 8.86, 10.59, 9.26, 8.01, 9.71, 7.13, 6.71, 5.77, 5.0, 3.85, 3.51, 1.45, -3.25, -2.49, -2.49, -2.49, 1.38, 1.33, 1.38, 3.04, 3.04, 3.14, 3.56, 3.56, 3.25, 3.25, 3.36, 1.53, 1.58, 0.0, 1.53, 3.36, 5.46, 6.2, 7.69, 8.94, 8.94, 9.22, 9.22, 10.43, 10.43, 10.43, 11.17, 11.17, 10.82, 11.5, 11.5, 11.99, 12.39, 12.39, 11.99, 11.6, 12.04, 12.04, 11.12, 11.12, 10.47, 10.47, 10.47, 9.48, 8.1, 8.1, 8.1, 7.82, 7.54, 7.26, 4.8, 4.6, 4.4, 2.83, 2.33, 2.33, 1.14, 1.14, 1.07, 0.95, 0.95, 0.95, 0.0, 0.0, 0.0, 0.0, 1.4, 2.4, 3.17, 3.35, 2.17, 2.17, 1.04, 1.02, 1.92, 2.82, 4.3, 5.2, 6.08, 6.79, 7.19, 6.53, 6.88, 7.27, 6.44, 7.3, 10.69, 6.88, 5.95, 5.77, 4.92, 4.4, 4.5, 4.8, 3.25, 1.93, 1.93, 1.93, 1.33, 1.33, 1.33, 3.04, 3.04, 3.04, 3.14, 3.14, 3.25, 1.66, 1.72, 1.53, 0.0, 0.0, 1.53, 3.25, 3.68, 6.2, 6.4, 8.94, 7.36, 7.36, 9.22, 10.43, 10.43, 11.52, 11.17, 11.17, 10.82, 12.39, 11.99, 11.99, 11.99, 11.16, 10.79, 11.12, 11.12, 11.12, 11.12, 11.12, 10.12, 10.12, 10.47, 10.47, 8.1, 8.1, 7.82, 7.82, 7.54, 7.26, 4.8, 4.4, 4.4, 2.97, 2.83, 2.54, 2.54, 1.07, 1.07, 1.01, 0.95, 0.95, 1.1, 0.0, 0.0, 0.0, 0.0, 1.4, 3.4, 3.17, 4.21, 4.0, 3.3, 3.3, 2.02, 3.98, 5.14, 6.0, 6.24, 6.08, 6.31, 5.4, 5.25, 4.07, 4.31, 7.38, 9.12, 6.24, 4.31, 4.23, 4.4, 5.0, 5.41, 5.41, 5.46, 5.21, 5.21, 5.21, 1.33, 1.33, 1.33, 1.5, 3.04, 3.04, 3.04, 1.61, 1.61, 1.66, 0.0, 0.0, 0.0, 0.0, 1.48, 3.25, 3.81, 6.2, 6.4, 7.36, 7.36, 7.36, 9.22, 10.43, 10.43, 11.17, 11.9, 11.53, 11.53, 11.53, 11.16, 11.16, 11.16, 11.16, 10.79, 10.12, 11.12, 10.73, 10.73, 11.12, 10.12, 10.12, 10.12, 9.17, 9.17, 8.1, 7.82, 7.82, 7.54, 7.26, 4.8, 4.6, 4.6, 2.97, 2.83, 1.4, 1.32, 1.25, 1.18, 1.18, 1.1, 0.95, 1.1, 0.0, 0.0, 0.0, 0.0, 1.63, 2.82, 3.6, 3.8, 4.44, 4.0, 4.74, 4.4, 4.78, 5.52, 6.41, 5.35, 5.35, 5.2, 5.2, 4.33, 3.19, 4.39, 5.93, 7.21, 5.73, 3.68, 4.6, 5.09, 6.62, 6.45, 6.2, 5.41, 4.34, 4.34, 4.34, 1.33, 1.33, 1.33, 1.5, 1.55, 1.55, 1.55, 1.61, 1.61, 0.0, 0.0, 0.0, 0.0, 0.0, 1.48, 3.25, 3.36, 5.46, 6.2, 6.4, 6.4, 8.94, 10.43, 11.33, 11.33, 10.99, 10.99, 11.28, 12.03, 11.16, 11.16, 11.16, 11.16, 11.16, 10.79, 9.77, 9.77, 10.73, 10.73, 10.73, 10.12, 9.17, 9.17, 9.17, 9.17, 8.1, 7.82, 7.82, 7.54, 7.26, 4.8, 4.6, 3.65, 3.49, 3.32, 1.67, 1.67, 1.58, 1.25, 1.18, 1.1, 1.1, 1.1, 0.0, 0.0, 0.0, 0.0, 1.55, 1.84, 1.58, 1.4, 2.33, 3.14, 4.98, 4.98, 5.9, 5.7, 5.52, 5.14, 4.44, 5.35, 5.2, 4.07, 4.69, 6.04, 5.68, 6.9, 5.63, 6.44, 6.24, 6.44, 6.29, 6.09, 5.51, 5.3, 4.71, 4.71, 4.71, 0.0, 0.0, 1.33, 1.5, 1.5, 1.55, 1.55, 1.61, 0.0, 0.0, 0.0, 0.0, 0.0, 0.0, 1.61, 3.25, 3.36, 3.81, 3.81, 6.4, 7.93, 9.16, 10.99, 10.12, 10.86, 10.86, 10.52, 11.28, 11.28, 10.91, 10.79, 11.16, 11.16, 11.16, 10.79, 9.77, 9.77, 9.77, 9.42, 9.77, 8.85, 8.85, 9.17, 9.17, 9.17, 7.82, 7.82, 7.82, 7.82, 7.26, 5.52, 4.6, 3.65, 3.49, 3.32, 3.15, 1.67, 1.58, 1.49, 1.49, 1.18, 0.0, 0.0, 0.0, 0.0, 0.0, 0.0, 1.7, 0.0, 0.0, 0.0, 1.2, 2.17, 3.3, 4.2, 4.2, 4.78, 4.99, 5.52, 5.14, 5.35, 5.2, 5.62, 7.0, 7.53, 6.91, 7.2, 7.28, 6.86, 6.31, 5.86, 5.77, 5.72, 5.51, 5.51, 4.6, 4.6, 4.6, 0.0, 0.0, 0.0, 1.5, 1.5, 1.5, 1.55, 0.0, 0.0, 0.0, 0.0, 0.0, 0.0, 0.0, 0.0, 1.66, 1.72, 3.36, 3.81, 6.88, 8.31, 10.12, 10.12, 10.12, 10.12, 10.86, 10.52, 10.52, 10.18, 10.91, 9.96, 10.3, 11.16, 11.16, 10.12, 9.77, 9.77, 9.77, 9.42, 9.42, 8.85, 8.85, 8.85, 8.85, 8.85, 7.82, 7.82, 7.82, 7.82, 5.98, 5.52, 4.6, 3.65, 3.49, 3.32, 3.15, 1.67, 1.58, 1.49, 1.49, 0.0, 0.0, 0.0, 0.0, 0.0, 0.0, 0.0, 0.0, 0.0, 0.0, 0.0, 1.2, 1.26, 3.14, 3.3, 3.3, 3.3, 3.99, 4.6, 4.44, 5.14, 5.72, 5.86, 6.47, 8.08, 7.14, 7.4, 7.96, 6.14, 5.41, 5.3, 5.0, 4.92, 5.51, 5.51, 5.51, 5.51, 5.51, 0.0, 0.0, 0.0, 0.0, 1.44, 1.5, 0.0, 0.0, 0.0, 0.0, 0.0, 0.0, 0.0, 0.0, 0.0, 0.0, 0.0, 1.72, 4.87, 6.88, 8.05, 9.31, 9.31, 10.12, 10.12, 9.8, 10.52, 10.18, 10.18, 10.18, 9.96, 10.3, 10.3, 9.96, 9.17, 8.85, 8.85, 9.42, 9.42, 8.53, 8.85, 8.85, 8.85, 8.85, 7.82, 7.82, 7.82, 7.82, 6.44, 5.98, 4.8, 4.6, 3.11, 2.97, 3.49, 3.32, 1.67, 1.67, 1.58, 1.49, 0.0, 0.0, 0.0, 0.0, 0.0, 0.0, 0.0, 0.0, -2.6, 0.0, 0.0, 0.0, 1.2, 3.35, 4.44, 4.0, 3.14, 3.11, 3.99, 4.6, 5.35, 5.06, 4.81, 4.71, 5.51, 6.57, 7.6, 8.41, 5.52, 5.18, 4.5, 5.0, 5.2, 5.72, 5.51, 5.51, 5.51, 5.51, 0.0, 0.0, 0.0, 0.0, 0.0, 0.0, 0.0, 0.0, 0.0, 0.0, -1.25, -1.29, -1.43, 0.0, 0.0, 0.0, 0.0, 1.72, 4.87, 6.2, 7.34, 8.58, 8.58, 10.12, 9.8, 9.8, 9.8, 10.18, 10.18, 9.84, 9.17, 10.3, 10.3, 9.96, 8.85, 8.85, 8.53, 8.53, 8.53, 7.54, 7.82, 7.82, 7.82, 7.54, 7.54, 7.54, 6.44, 6.44, 6.44, 5.2, 4.8, 4.6, 3.11, 3.11, 2.97, 3.32, 1.67, 1.58, 1.58, 1.49, 0.0, 0.0, 0.0, 0.0, 0.0, 0.0, -2.8, -4.43, -4.43, -2.54, 0.0, 0.0, 2.54, 3.8, 3.35, 4.44, 4.44, 4.0, 4.2, 4.6, 4.62, 4.17, 3.23, 3.1, 3.96, 5.56, 8.0, 7.97, 6.31, 5.09, 4.5, 5.0, 5.2, 5.72, 5.51, 5.51, 5.51, 5.51, 0.0, 0.0, 0.0, 0.0, 0.0, 0.0, 0.0, 0.0, 0.0, -1.25, -1.25, -1.29, -1.29, 0.0, 0.0, 0.0, 0.0, 2.91, 4.87, 6.2, 7.34, 8.58, 8.58, 9.42, 9.8, 9.8, 9.48, 9.48, 10.18, 9.84, 9.17, 9.48, 10.3, 9.17, 8.85, 8.85, 8.53, 8.53, 7.54, 7.54, 7.54, 7.54, 7.54, 7.54, 7.54, 6.21, 6.21, 6.21, 5.4, 5.0, 4.8, 3.25, 3.25, 3.11, 2.97, 2.97, 1.75, 1.58, 1.58, 1.49, 0.0, 0.0, 0.0, 0.0, 0.0, 0.0, -2.12, -4.74, -5.06, -3.97, -1.4, 0.0, 1.32, 2.54, 2.69, 3.52, 3.52, 3.3, 3.11, 3.82, 3.67, 3.42, 3.23, 3.17, 3.24, 4.79, 6.81, 7.76, 6.78, 5.09, 4.5, 5.0, 5.2, 5.72, 5.4, 5.4, 5.4, 5.4, 0.0, 0.0, 0.0, 0.0, 0.0, 0.0, 0.0, 0.0, 0.0, -1.25, -1.25, -1.25, -1.29, -1.29, 0.0, 0.0, 1.33, 2.91, 4.24, 5.63, 6.73, 8.31, 8.58, 9.42, 9.13, 9.48, 9.48, 9.48, 9.17, 9.17, 9.17, 9.48, 9.48, 8.3, 8.85, 8.85, 8.53, 7.54, 7.54, 7.54, 7.54, 7.54, 7.54, 7.54, 7.26, 5.98, 5.98, 5.4, 5.2, 4.8, 4.8, 3.25, 3.25, 3.25, 3.11, 1.54, 1.47, 1.67, 1.67, 1.58, 0.0, 0.0, 0.0, 0.0, 0.0, 0.0, -2.26, -5.06, -5.06, -4.22, -1.84, 0.0, 1.58, 2.17, 2.54, 2.33, 2.46, 3.3, 2.97, 3.11, 2.82, 2.51, 2.37, 3.07, 3.98, 5.72, 7.23, 7.76, 7.1, 5.8, 5.0, 5.0, 5.2, 5.1, 5.29, 5.1, 5.1, 5.1, 0.0, 0.0, 0.0, 0.0, 0.0, 0.0, 0.0, 0.0, 0.0, -1.25, -1.25, -1.25, -1.29, -1.29, 0.0, 0.0, 1.33, 2.63, 3.85, 5.63, 6.73, 7.69, 8.31, 9.13, 9.13, 8.83, 9.48, 9.48, 8.44, 8.44, 9.17, 8.59, 8.3, 8.01, 8.01, 8.01, 7.54, 6.7, 6.45, 6.45, 6.7, 6.7, 6.45, 6.45, 5.0, 5.0, 5.0, 5.0, 5.0, 4.8, 3.25, 3.25, 3.25, 3.25, 3.11, 1.62, 1.54, 1.47, 1.4, 0.0, 0.0, 0.0, 0.0, 0.0, 0.0, 0.0, -1.73, -2.4, -5.37, -5.37, -5.37, -2.26, 0.0, 0.0, 1.58, 1.4, 1.26, 2.28, 2.04, 2.13, 2.02, 2.71, 2.44, 3.14, 4.66, 6.35, 7.53, 7.82, 7.1, 7.03, 5.72, 5.51, 5.0, 5.2, 5.1, 4.75, 4.75, 4.75, 0.0, 0.0, 0.0, 0.0, 0.0, 0.0, 0.0, 0.0, 0.0, -1.25, -1.25, -1.25, -1.29, -1.29, 0.0, 0.0, 1.33, 2.63, 3.85, 5.63, 6.73, 7.69, 8.31, 9.13, 9.13, 8.83, 9.48, 9.48, 8.44, 8.44, 9.17, 8.59, 8.3, 8.01, 8.01, 8.01, 7.54, 6.7, 6.45, 6.45, 6.7, 6.7, 6.45, 6.45, 5.0, 5.0, 5.0, 5.0, 5.0, 4.8, 3.25, 3.25, 3.25, 3.25, 3.11, 1.62, 1.54, 1.47, 1.4, 0.0, 0.0, 0.0, 0.0, 0.0, 0.0, 0.0, -1.73, -2.4, -5.37, -5.37, -5.37, -2.26, 0.0, 0.0, 1.58, 1.4, 2.17, 2.28, 2.04, 2.13, 2.02, 1.76, 2.61, 3.23, 4.87, 6.28, 7.45, 8.43, 7.93, 7.49, 7.25, 6.21, 5.51, 4.87, 5.06, 4.01, 4.01, 4.01]}]